GFSWCAN_con_3kmhel_048.txt.gz
Helicity
15 11 28 30 14 -7 114 310 280 276 153 156 175 102 109 138 121 196 205 155 245 128 211 159 263 208 203 76 146 95 165 138 181 179 181 217 145 204 225 232 298 328 360 313 307 263 151 194 316 305 154 98 189 220
203 109 121 160 191 317 347 355 179 123 180 149 106 118 133 114 130 94 86 -22 204 62 91 107 110 184 227 186 159 137 130 101 227 234 241 260 222 227 229 252 310 288 252 244 193 162 171 151 175 142 133 111 150 235
77 71 99 128 160 163 163 121 117 104 75 81 115 119 115 107 23 99 -189 -214 318 53 26 76 123 93 62 104 151 174 103 128 177 222 233 221 211 257 218 243 264 266 260 247 238 184 191 201 143 126 118 123 156 172
75 117 129 109 120 157 168 140 117 89 101 102 91 72 52 45 48 66 -171 -60 19 270 134 192 139 162 56 26 76 129 121 104 99 186 219 218 177 155 213 201 213 211 300 222 212 207 242 152 121 137 195 217 272 280
45 39 40 48 61 80 87 125 92 80 81 55 37 33 53 69 -27 72 -22 8 45 342 98 43 226 108 73 74 83 79 52 75 102 191 213 211 162 145 180 224 222 252 253 278 192 255 326 138 167 181 248 257 271 348
9 13 -9 -15 -14 -0 14 37 58 62 71 50 43 54 67 38 39 105 133 -26 207 64 209 81 100 140 52 47 40 91 94 162 117 164 166 167 210 208 173 181 148 193 222 224 235 239 254 243 328 292 333 319 329 344
10 18 -10 -11 -17 -38 -68 -59 -35 -18 51 54 58 59 56 46 58 94 88 20 126 90 23 152 143 103 63 87 147 139 167 174 148 174 174 173 177 192 173 199 182 203 253 214 256 428 335 254 240 330 394 405 415 432
2 25 13 -10 -18 -25 -45 -49 -31 -49 15 47 46 54 49 39 90 197 178 74 180 78 112 193 219 146 116 96 106 176 236 241 218 165 193 211 200 221 138 166 215 222 243 310 237 243 229 364 422 452 426 432 484 479
28 33 17 20 -6 -25 -16 -24 -33 -43 -34 17 33 39 133 153 106 121 41 11 110 25 175 134 104 183 80 75 73 170 226 240 217 213 230 194 219 140 173 137 143 226 216 268 281 282 313 422 468 448 460 464 518 470
40 25 1 -9 -16 -19 -14 16 -5 -53 -43 -46 -36 46 77 60 50 46 159 30 -11 -67 23 119 93 26 17 16 2 113 199 226 254 246 210 230 140 218 231 201 226 274 238 320 393 340 361 379 424 447 432 397 386 392
35 11 -21 -29 -7 -4 -16 -28 10 9 2 69 66 74 64 -16 36 98 61 55 47 31 -17 1 4 -13 -10 -11 -3 64 261 288 224 210 214 165 261 339 274 232 211 177 165 185 183 252 289 372 422 442 424 430 460 465
-2 -7 11 12 -14 -17 -22 -20 -14 43 11 -3 78 101 93 46 -2 110 122 95 28 4 -5 9 33 66 46 86 163 158 303 345 244 235 278 114 284 228 365 354 272 150 177 181 189 266 313 341 354 408 434 456 439 427
-25 -14 -5 -19 -22 -40 -30 -42 9 -109 -52 185 79 133 41 69 98 67 9 39 35 94 81 74 114 106 128 125 71 108 275 270 173 209 312 321 219 123 165 288 368 334 328 307 291 288 298 335 349 379 420 397 424 439
-31 -34 -26 -40 -51 -37 -91 -95 -109 -83 262 58 29 72 64 58 25 28 43 57 46 80 58 69 118 73 52 72 65 46 50 54 95 -23 91 82 80 134 181 218 266 272 261 264 263 254 281 328 357 367 374 367 364 354
-19 -33 -49 -48 -165 -114 -166 -131 -105 32 99 -7 40 43 53 74 95 93 72 50 86 87 91 104 77 93 91 73 84 60 59 80 87 109 109 108 123 153 179 191 217 221 207 198 180 214 266 313 374 403 366 341 339 337
-69 -64 -95 -44 4 14 21 1 -26 57 104 73 68 83 95 66 117 132 133 103 122 106 110 98 71 76 84 86 107 128 131 129 109 90 82 77 117 156 166 177 199 208 218 219 215 266 314 334 341 338 309 258 234 218
17 45 5 66 70 56 14 72 39 67 67 54 81 143 103 80 95 105 115 115 113 63 79 94 104 97 90 108 137 189 187 166 161 68 38 51 90 119 169 219 230 243 256 254 262 273 285 276 270 243 218 189 206 186
136 94 -7 95 65 19 34 43 19 21 84 100 101 118 98 99 128 114 161 160 59 45 66 70 68 110 92 81 111 142 181 231 119 115 139 161 183 195 193 197 189 187 199 209 216 204 189 191 196 184 190 182 202 194
13 -21 -45 16 3 -20 4 49 58 70 90 69 108 116 105 135 168 152 143 154 165 125 85 97 114 159 182 199 230 258 258 228 163 168 222 236 199 167 154 159 177 189 192 194 207 225 228 198 174 170 166 185 225 225
111 208 110 14 -41 -10 6 46 98 69 113 68 71 103 76 88 128 164 219 241 168 95 151 181 258 269 264 276 220 179 163 147 110 158 202 240 229 235 230 200 196 203 221 226 229 207 203 236 247 248 246 237 223 220
104 201 157 110 160 70 14 2 21 30 31 48 18 58 43 130 217 271 321 328 335 251 257 284 284 256 165 131 143 104 135 139 178 144 112 161 193 219 230 230 239 243 238 222 228 258 270 243 215 211 214 214 201 199
-19 22 85 150 74 29 -43 -0 -18 9 35 36 61 44 43 66 108 159 192 289 269 282 234 208 201 169 163 175 167 180 148 147 158 167 188 179 224 226 243 221 223 249 264 246 228 226 225 207 199 205 208 203 197 191
-13 18 15 -10 -49 -65 -62 -29 -27 -18 -22 -7 12 26 36 46 43 21 63 174 196 196 154 110 97 104 121 137 165 212 206 171 183 182 164 151 169 185 202 239 222 204 206 218 188 185 188 191 193 181 173 170 163 157
17 6 -10 -36 -32 -51 -30 8 12 17 20 23 25 28 41 31 31 67 93 129 150 151 158 163 116 108 106 162 192 179 165 104 113 166 151 115 132 161 148 157 174 177 151 131 140 144 151 151 147 141 141 150 159 155
8 2 4 4 8 26 27 18 33 29 51 60 47 43 36 33 57 75 78 93 107 126 122 105 111 118 112 109 113 114 125 91 75 112 153 89 45 49 82 94 114 129 110 108 128 122 123 125 130 133 133 136 154 158
22 18 23 16 31 43 4 29 28 36 40 46 34 11 9 36 73 75 37 32 41 52 58 55 44 46 75 73 64 82 78 46 44 94 115 110 94 62 63 78 77 92 84 59 68 84 89 83 88 108 104 97 111 126
25 41 66 48 28 36 58 48 35 51 56 46 19 37 48 103 89 70 71 73 73 77 63 60 52 48 38 46 57 62 69 69 49 28 30 67 74 71 64 57 67 50 48 58 61 57 61 69 75 73 78 97 96 96
45 52 86 60 79 57 44 42 41 44 33 30 54 92 90 90 97 105 106 89 79 72 75 77 75 60 67 66 59 56 57 43 38 27 23 51 56 54 53 44 43 62 51 56 51 53 51 53 61 72 80 82 93 105
75 35 51 114 66 52 50 32 29 34 28 52 81 87 96 102 101 113 114 102 95 81 77 68 67 59 81 93 100 88 89 62 58 63 53 36 44 40 50 42 44 50 62 70 77 78 83 97 99 88 102 108 120 127
77 4 42 51 49 38 27 22 28 26 56 54 57 83 144 136 130 100 97 94 81 73 56 62 56 57 42 47 46 66 60 40 20 10 26 24 16 19 27 35 41 45 49 59 62 58 79 93 99 104 113 120 131 139
2 24 36 24 11 -6 -10 -22 15 51 56 88 106 114 92 81 91 96 84 60 55 54 68 74 69 54 58 50 37 33 26 13 22 18 14 13 21 32 39 42 41 48 56 58 58 65 68 75 80 84 91 97 102 110
12 9 6 9 -2 -17 -15 31 44 51 48 71 71 71 63 65 57 37 38 47 65 72 46 47 52 38 17 9 6 -0 13 17 20 28 38 49 43 35 38 41 46 53 59 61 60 64 72 75 76 80 76 69 78 87
34 46 40 32 21 6 -0 50 63 71 82 93 73 65 62 68 61 38 39 41 41 35 32 26 20 11 13 18 29 31 29 26 30 32 46 48 46 40 47 51 52 63 74 71 67 70 74 79 83 86 83 85 81 87

GFSWCAN_con_3kmhel_054.txt.gz
Helicity
2 -2 -24 1 -13 -6 10 27 43 65 74 63 79 102 265 143 282 289 231 247 169 97 66 107 94 46 84 106 196 174 227 219 162 116 145 133 109 146 120 73 123 122 162 165 163 142 105 164 219 175 124 79 75 80
2 10 -24 -12 10 14 16 29 57 67 87 76 99 250 189 63 364 362 339 335 287 276 211 172 160 140 291 92 168 176 200 189 223 150 112 145 154 115 104 93 150 118 160 153 152 118 150 128 108 82 99 79 121 102
-21 7 42 28 17 21 26 32 53 93 52 94 220 200 144 3 164 316 327 410 298 265 146 78 48 102 210 198 189 163 164 129 123 209 164 138 111 101 124 84 78 123 185 141 94 74 58 79 89 150 122 122 149 136
135 12 11 17 28 42 49 66 46 90 252 210 204 129 100 137 240 240 283 260 202 225 68 26 -67 -36 149 189 51 104 120 112 139 119 150 143 118 98 90 84 77 90 103 162 85 41 43 32 73 98 130 152 164 161
172 262 206 98 52 110 138 157 186 262 186 172 139 133 147 243 288 347 284 161 117 124 26 -4 12 22 12 180 109 62 137 124 161 174 203 171 160 116 128 150 112 160 148 159 139 72 80 23 98 54 117 153 181 199
84 109 154 229 264 253 172 238 280 133 103 121 127 200 261 282 266 255 171 173 179 87 13 34 10 -60 25 155 141 -30 22 166 190 204 171 165 216 159 139 119 93 102 112 98 99 114 88 95 109 103 64 145 178 187
67 80 102 138 159 192 185 181 215 219 238 231 232 249 212 171 109 136 128 86 113 112 -0 41 -105 -18 189 229 54 17 70 90 88 115 170 176 133 154 168 102 112 88 98 117 124 127 104 88 105 49 85 186 230 243
58 51 53 90 107 121 121 127 131 105 86 85 95 121 91 166 142 129 71 56 134 70 -18 49 -31 53 107 72 77 27 57 79 72 69 94 115 141 161 143 85 26 98 152 115 102 125 165 131 128 126 162 222 261 316
39 52 60 73 69 75 65 57 57 51 49 65 69 113 192 166 79 60 16 -24 27 76 37 27 61 123 63 117 71 85 74 74 73 61 98 112 138 158 153 57 74 110 137 117 120 107 96 136 134 146 195 200 211 302
36 33 34 59 58 53 69 66 38 15 54 51 12 174 170 107 49 16 68 -49 -15 47 12 67 76 167 117 98 95 92 93 91 41 74 93 125 66 76 155 198 184 141 75 103 145 170 140 149 159 188 191 235 298 283
8 27 30 30 23 79 65 56 -13 -8 26 186 93 235 95 -37 27 47 35 -8 41 -8 -45 -116 -62 97 369 129 120 116 51 82 83 83 114 99 96 161 264 231 194 178 118 64 69 103 81 102 146 225 283 307 296 302
41 7 -12 -39 16 52 50 16 17 61 83 116 74 23 1 50 55 73 57 51 24 -26 -34 -98 -109 -36 259 251 166 131 84 48 84 44 94 145 172 261 214 180 214 211 201 172 175 158 142 181 214 222 259 277 333 434
46 55 20 37 42 33 39 66 -18 -122 57 83 102 17 -3 -46 -36 -26 -71 -82 -3 -19 22 20 -2 -0 62 86 98 82 51 23 11 71 110 131 210 259 264 215 203 238 228 228 251 265 336 362 290 281 328 379 396 414
24 26 28 26 44 43 27 -61 -23 52 46 23 26 -20 -10 -99 -85 -113 -108 -123 -59 -0 24 25 17 21 38 77 56 43 31 32 48 84 106 155 210 282 259 221 249 283 271 238 243 250 265 236 248 273 245 259 310 360
7 7 18 22 -36 -68 -83 -36 -18 -12 -43 -67 -6 -40 -34 -54 -57 -83 -39 -60 -24 30 26 39 60 64 89 79 107 70 76 124 131 118 126 139 114 75 79 70 79 94 113 142 135 136 180 209 248 275 258 266 310 329
-31 -18 -29 -49 -37 -17 -70 -139 -103 -25 -9 -56 -51 14 37 50 130 144 143 112 114 84 76 72 63 88 140 142 138 162 142 122 103 122 159 124 94 88 88 110 125 138 154 147 151 146 164 185 203 222 276 314 321 289
-52 -57 -71 -90 -112 -149 -133 -105 -31 5 38 48 67 61 88 135 191 272 249 228 177 107 76 91 172 153 119 109 135 136 135 124 166 149 150 155 125 146 164 166 167 160 151 141 139 166 190 211 238 295 300 230 211 188
18 -45 -37 -82 -98 -46 36 25 54 61 49 71 87 88 112 134 172 163 185 172 65 54 83 69 79 124 129 141 152 163 160 162 146 150 161 177 154 169 168 194 204 209 223 219 203 200 203 213 231 194 171 152 162 164
53 40 53 6 40 17 -1 67 93 71 69 85 76 51 67 103 134 129 131 129 101 52 22 53 75 129 133 138 169 181 176 160 125 126 142 187 218 207 210 236 240 232 222 206 205 199 200 206 171 144 136 124 133 119
163 84 65 78 77 35 37 20 30 61 93 106 62 55 41 49 51 118 169 135 61 33 98 129 177 184 187 195 165 151 124 109 79 145 181 202 227 239 249 209 190 180 198 220 243 218 201 212 199 172 158 157 152 165
129 49 59 71 52 28 -49 -58 -59 -37 -10 -5 22 77 68 59 199 248 281 210 286 248 144 119 109 115 97 87 76 69 105 118 140 114 122 161 171 169 182 187 183 186 188 181 183 200 202 185 157 145 146 150 145 146
-25 -29 -30 61 18 -20 -73 -54 -71 -70 -66 -55 -33 -45 -36 17 110 164 145 224 90 72 28 14 47 62 101 155 123 110 96 95 106 121 140 143 191 199 205 177 166 178 184 174 153 146 143 142 132 137 142 137 137 145
-43 -4 4 19 -28 -74 -66 -54 -69 -65 -68 -47 -38 -15 -3 20 9 -25 -1 64 32 27 26 53 74 84 95 102 122 147 140 130 134 131 123 114 111 115 119 137 129 115 119 126 107 106 114 123 131 120 115 123 122 133
17 -9 -3 -38 -55 -71 -83 -61 -56 -43 -43 -42 -30 -30 -17 -24 -28 -15 2 8 21 20 49 78 74 94 115 162 182 178 147 107 105 123 114 97 113 124 99 92 96 96 88 71 79 81 87 94 99 100 115 122 129 133
-1 26 -23 -20 -42 -47 -47 -44 -28 -36 -21 -19 -16 -16 -16 -27 -2 -5 -8 7 35 65 86 92 101 114 122 120 113 116 102 86 84 88 102 78 50 40 51 52 65 77 71 77 93 88 85 83 92 102 115 126 135 132
13 10 -13 -32 -26 -23 -35 -13 -17 -8 -12 4 12 4 3 27 40 51 52 58 77 88 92 97 94 94 106 95 87 94 95 67 59 81 89 75 78 66 62 64 58 67 77 69 73 80 82 76 76 79 79 84 84 78
27 18 5 15 18 29 38 39 23 35 45 42 32 35 46 70 83 86 105 103 108 101 85 79 89 88 79 75 80 77 77 78 74 54 36 46 55 62 65 59 61 42 32 47 49 54 60 60 60 56 54 50 52 47
38 8 38 42 69 56 45 50 47 43 34 25 38 64 77 92 100 98 106 111 103 91 93 92 88 80 82 75 58 54 56 35 25 22 25 31 37 37 35 29 27 32 32 41 37 37 36 33 33 35 36 32 31 29
52 33 62 121 96 86 75 51 30 20 5 24 53 59 58 61 76 105 100 82 71 74 79 80 84 68 74 61 54 49 46 29 17 40 51 51 41 46 40 38 39 39 30 24 29 22 33 25 23 21 24 24 22 24
74 36 69 99 93 65 34 -1 14 9 15 25 34 56 81 87 83 61 66 63 59 65 69 67 60 49 55 49 52 52 50 46 47 46 50 54 50 40 37 35 32 32 22 20 22 24 28 25 24 26 29 31 36 37
48 63 96 81 43 12 8 6 13 22 27 48 59 70 77 77 67 56 65 62 68 66 66 68 65 55 53 50 46 44 45 40 42 48 45 43 37 32 31 28 28 27 27 29 33 35 32 33 37 33 37 39 39 39
36 28 15 8 -30 -44 -33 -16 6 13 21 29 36 36 56 57 63 48 37 39 46 48 43 41 44 47 47 43 39 43 41 40 40 39 33 31 27 29 28 30 33 32 34 37 42 46 47 49 51 51 48 47 47 44
75 52 32 12 -21 -37 -25 -3 12 35 40 33 33 45 55 56 68 51 31 12 20 34 36 38 45 52 55 53 49 47 39 41 39 36 37 31 27 26 28 32 35 42 45 51 56 58 60 59 61 60 61 59 57 56

GFSWCAN_con_3kmhel_057.txt.gz
Helicity
32 2 8 4 2 -23 2 17 -8 -12 10 28 10 63 31 115 89 300 258 220 294 219 140 99 95 41 47 120 147 134 117 176 158 174 160 116 132 106 109 42 84 94 175 187 130 119 94 125 139 90 61 -23 29 40
39 24 18 8 5 -11 -2 7 19 19 -12 23 67 15 18 59 207 452 290 247 258 210 223 189 93 106 148 105 143 115 108 113 162 170 155 121 134 183 110 96 43 70 118 115 129 123 135 79 65 41 0 31 53 45
2 -3 9 -5 12 16 17 24 28 9 31 47 48 18 53 49 340 308 337 268 162 154 131 103 63 56 118 232 212 154 97 56 47 71 133 179 175 125 110 93 104 112 114 71 88 70 85 72 57 71 82 33 43 86
-5 -1 22 2 13 44 51 38 45 56 70 68 86 59 189 418 320 361 344 191 157 144 105 87 178 33 -32 109 351 297 146 41 72 93 131 129 123 111 64 66 78 88 61 84 68 61 68 108 67 74 48 53 67 88
130 13 27 49 24 38 49 68 70 56 54 30 228 245 302 245 245 283 256 211 182 231 116 134 84 91 -40 15 171 344 310 198 107 115 154 133 76 106 83 59 62 63 64 81 66 49 56 58 53 125 101 31 40 65
131 156 95 115 43 36 29 25 41 66 75 123 110 297 320 336 340 370 300 316 148 167 177 58 74 9 -29 -24 106 156 303 254 114 123 145 123 62 71 80 32 32 35 38 16 42 45 45 49 106 113 92 49 72 79
105 106 103 177 172 202 199 201 184 261 280 249 284 231 177 153 193 214 145 115 145 131 125 99 68 32 -28 31 -13 -95 89 150 125 108 143 132 127 154 111 58 59 53 31 35 39 89 61 63 69 79 79 76 95 63
140 127 116 107 130 121 137 127 121 188 198 193 221 253 266 224 101 82 76 81 70 152 59 51 87 56 17 -5 40 -5 27 60 99 123 129 95 117 165 95 50 23 22 45 64 72 97 64 73 66 64 80 108 94 98
101 124 132 126 150 177 183 136 161 180 195 216 219 187 240 207 134 90 49 28 111 159 90 23 60 43 -13 57 109 75 76 32 83 67 79 117 116 124 85 68 54 87 83 57 102 78 74 47 72 82 97 104 91 136
64 82 101 107 105 99 89 91 86 90 68 30 37 125 131 108 65 67 65 60 24 64 28 44 21 88 74 35 201 131 156 102 81 48 68 61 54 109 275 302 240 171 177 173 94 62 50 57 76 89 88 95 88 149
36 49 78 82 80 76 73 60 33 -17 17 158 147 135 98 11 38 45 1 1 19 50 5 25 -9 -37 140 227 178 133 119 106 34 63 75 50 101 158 203 231 234 164 128 133 141 122 105 99 84 74 71 95 135 171
15 55 78 88 76 20 -24 -19 31 48 57 85 57 33 89 106 93 70 26 35 55 84 23 35 -37 -18 23 164 94 72 70 121 56 104 150 153 209 264 242 216 214 219 224 187 172 152 116 94 72 65 86 103 207 384
30 59 41 -3 -16 -10 48 42 104 80 109 158 202 74 84 83 82 100 67 75 48 10 5 12 2 26 53 57 79 135 69 84 40 140 137 108 132 213 231 202 159 161 179 198 186 190 231 242 274 298 415 410 411 487
25 44 33 -10 35 32 -47 -15 101 85 66 28 27 -73 3 -14 35 46 73 73 52 42 12 39 -17 14 93 106 132 140 90 91 77 81 91 131 213 172 144 155 167 211 225 214 207 212 232 265 283 314 327 357 439 480
43 50 43 49 31 -17 -29 16 75 61 26 37 24 -27 -62 7 -33 -32 18 16 -14 14 69 129 15 24 54 59 101 109 74 101 152 139 131 198 153 101 92 103 125 146 126 123 110 115 155 170 195 213 218 223 250 249
18 43 23 -39 -27 -23 -51 -54 -29 3 -46 -16 -27 31 -12 -45 -6 39 35 15 7 25 43 32 20 26 37 74 93 120 98 135 119 148 167 174 121 98 96 113 136 149 162 152 154 169 204 224 225 232 251 255 253 247
25 14 -11 -31 -52 -76 -79 -88 -70 -59 -45 -19 -10 -10 52 58 52 89 125 137 146 108 72 53 34 60 72 60 104 159 166 168 156 135 142 152 159 154 151 163 176 178 167 166 178 202 201 193 223 274 265 203 185 179
-1 16 -1 -7 -19 -44 -8 23 24 37 35 51 58 73 91 136 178 194 136 174 80 83 104 47 77 140 143 161 179 167 153 147 99 105 124 149 139 172 196 213 225 227 232 239 234 225 222 222 221 180 156 130 134 132
8 5 -8 -4 10 23 33 97 95 81 110 153 97 111 151 144 140 156 120 112 137 142 162 112 80 169 144 92 93 100 117 133 108 103 115 151 191 189 195 210 218 236 240 226 224 229 234 245 201 159 142 135 138 114
59 2 7 46 76 25 30 54 86 75 117 125 130 22 18 29 32 77 150 45 16 58 109 109 91 74 71 73 61 58 65 59 49 107 157 165 170 190 214 187 180 174 189 213 235 214 189 200 193 172 159 149 131 144
58 73 75 84 56 -15 -8 7 31 96 121 89 112 -5 4 -16 103 135 162 199 281 142 81 25 28 41 57 70 71 69 96 99 120 117 125 155 156 158 163 168 172 173 181 174 169 177 180 161 135 118 122 128 137 137
32 58 3 94 -22 -47 -68 -31 -65 -50 -80 -70 -69 -60 -31 24 69 82 64 101 77 37 -24 -14 17 35 76 117 122 124 109 120 122 117 130 128 168 165 172 150 137 146 145 133 119 116 114 117 109 116 122 113 115 136
-8 -10 -6 25 -34 -78 -75 -36 -59 -69 -68 -51 -51 -19 0 20 14 -29 4 43 27 17 21 48 72 88 106 116 121 143 139 139 145 143 133 125 115 108 108 120 114 107 111 112 97 92 93 101 108 103 101 113 108 115
30 9 -9 -64 -83 -91 -99 -93 -70 -69 -75 -52 -35 -40 -21 -16 -21 -2 6 -12 4 17 56 84 82 108 114 147 186 197 153 111 117 122 106 92 107 104 82 80 82 84 76 66 70 72 76 79 88 91 106 107 105 102
25 13 -17 -30 -70 -74 -91 -87 -74 -72 -52 -33 -22 -15 -14 -23 1 0 3 10 40 75 103 115 129 135 143 144 133 133 109 94 98 100 108 91 65 47 53 54 71 79 69 69 76 72 69 63 63 65 71 82 91 96
15 0 -18 -39 -48 -51 -58 -35 -39 -18 -14 -4 1 -3 -8 13 27 47 47 65 86 105 127 143 138 137 144 129 115 114 110 81 71 93 97 85 89 80 74 73 66 74 72 63 68 74 75 72 78 82 76 79 81 72
1 7 -6 4 6 22 30 53 42 37 33 22 13 17 30 65 89 89 107 116 121 124 102 109 112 123 117 109 103 94 88 89 88 70 50 58 67 76 83 83 80 60 55 64 74 79 76 68 59 53 46 43 47 44
54 50 70 74 94 101 88 79 63 47 38 24 33 66 88 95 116 105 104 115 118 105 104 102 102 102 102 94 77 65 57 40 33 30 35 47 53 52 52 48 47 46 40 44 39 41 34 33 28 30 30 29 28 24
130 107 122 177 140 123 103 76 55 46 28 41 66 83 85 79 86 109 122 105 83 82 93 92 92 80 80 72 64 53 46 44 43 55 55 60 55 56 39 38 41 35 22 20 33 23 29 22 26 22 22 22 21 21
152 107 140 171 159 121 77 50 61 55 54 54 57 72 98 97 92 89 88 81 79 82 74 70 64 59 64 58 62 60 58 55 55 49 52 59 55 40 32 29 23 23 17 20 22 26 34 25 29 32 32 31 37 31
130 140 166 149 109 70 56 46 40 46 55 80 94 105 110 95 88 57 64 64 68 69 67 67 64 57 55 50 46 44 47 46 53 61 56 49 37 32 29 23 24 21 25 28 32 39 41 39 46 47 51 51 53 48
148 129 92 85 41 11 17 22 35 48 57 74 74 67 75 78 94 79 52 49 55 54 53 46 47 51 50 46 46 57 60 53 49 46 38 30 26 27 24 24 28 31 35 38 47 50 54 55 57 63 59 58 59 55
140 117 93 60 20 -1 1 16 32 55 61 67 62 59 71 82 87 70 39 25 35 42 47 43 50 52 56 54 53 50 38 47 50 42 41 29 22 20 18 28 35 42 46 51 56 62 62 62 63 64 58 58 55 54

GFSWCAN_con_3kmhel_060.txt.gz
Helicity
41 62 29 27 29 22 51 47 55 29 60 94 85 195 115 138 140 222 218 142 354 313 259 88 106 120 90 50 69 71 98 96 120 249 223 165 72 99 128 68 67 53 81 111 179 189 113 113 24 53 65 2 83 45
52 10 26 46 28 42 24 35 20 62 81 113 91 122 104 97 105 183 188 179 264 295 239 237 113 107 132 101 82 89 65 134 146 120 196 203 288 131 207 108 62 37 90 92 97 145 94 48 53 104 66 77 42 58
-5 41 51 25 -21 1 10 -0 20 22 24 24 64 76 75 88 109 171 163 195 214 268 232 190 145 121 32 110 193 164 109 77 102 103 158 173 163 179 198 182 93 72 54 41 39 61 92 104 137 89 65 69 129 121
-13 48 18 12 8 -4 4 -1 -3 8 5 48 80 88 92 89 103 146 146 143 184 203 287 226 128 114 124 64 116 159 149 152 139 125 27 129 130 127 173 187 117 59 87 55 42 32 32 -0 1 60 54 60 82 42
47 37 5 17 37 24 16 44 -4 15 10 9 60 86 67 97 64 133 158 150 181 176 106 155 94 69 80 65 80 146 167 106 161 110 161 145 92 155 174 136 138 107 104 110 62 37 42 25 21 35 36 37 42 94
101 30 29 32 49 40 9 26 51 11 32 39 27 59 68 45 57 303 358 312 237 238 103 132 107 72 43 52 42 87 137 111 82 11 34 157 54 118 173 140 143 84 68 32 10 5 33 47 75 75 80 64 104 93
177 122 38 16 32 36 35 33 33 63 21 32 32 165 136 214 281 228 141 139 153 219 159 123 62 27 75 53 76 55 44 97 141 20 46 127 130 118 92 73 81 44 -2 20 25 45 68 86 70 90 74 57 74 123
100 94 144 125 129 90 58 76 201 269 247 294 372 308 257 274 236 194 107 229 244 189 146 113 106 59 55 76 91 76 35 70 47 129 141 109 92 97 80 73 50 34 28 46 49 61 89 96 79 54 57 67 99 129
130 113 82 53 92 228 190 157 243 263 258 260 298 287 310 263 191 133 127 114 141 139 107 107 85 88 94 58 60 52 89 37 131 89 102 98 100 125 232 303 355 339 231 209 224 211 173 145 113 75 52 57 104 145
74 136 137 93 91 96 157 203 202 160 131 123 165 153 155 156 11 -2 65 58 78 57 88 27 -19 -11 70 63 76 25 96 108 20 14 75 78 111 202 252 236 238 287 305 214 153 183 237 223 134 83 97 74 70 111
53 62 71 76 76 74 60 39 31 14 184 250 204 188 93 -11 53 60 24 38 56 86 5 -28 -65 -29 -12 81 162 119 94 99 6 15 80 68 146 140 206 190 136 160 198 238 198 163 211 167 110 120 95 127 153 189
44 40 35 68 94 86 79 93 159 178 112 87 56 63 64 29 76 49 25 22 -2 23 14 -11 -45 -29 -46 43 40 -25 -24 152 71 156 87 111 213 210 184 190 151 141 182 199 190 180 208 217 225 301 341 279 275 324
39 43 87 112 92 53 17 58 76 105 80 81 113 91 75 66 57 40 41 30 78 67 50 20 -60 -76 -2 41 102 176 116 196 171 197 134 90 155 154 128 115 107 135 153 172 185 191 181 215 278 234 230 236 268 341
5 27 53 57 59 70 63 63 12 131 52 57 92 125 92 67 66 78 89 62 32 27 49 59 -12 -12 34 116 120 86 75 176 134 211 169 291 255 184 131 92 112 157 161 174 193 216 257 281 294 290 269 253 304 346
32 32 24 23 1 -13 -3 48 56 8 21 38 71 43 72 96 33 58 34 65 -12 3 69 66 12 12 41 23 36 110 58 78 100 96 85 147 145 122 117 105 111 139 170 193 211 250 270 268 305 322 295 244 236 250
18 21 27 1 -13 -30 55 46 57 31 17 8 9 -7 12 -46 6 55 40 47 11 59 64 78 47 7 29 74 68 129 75 68 61 84 135 144 153 139 126 131 148 139 133 134 153 176 197 222 227 234 244 235 221 210
10 1 15 -13 -76 -41 -7 -33 -16 -14 -7 -9 30 23 37 17 17 49 56 60 88 100 82 87 37 44 52 57 68 88 91 78 105 142 153 133 160 174 192 203 203 182 183 184 194 214 208 188 195 219 225 196 189 180
6 9 -14 -14 13 35 96 67 20 20 44 68 79 79 58 74 82 60 34 81 71 89 89 -0 10 12 5 25 56 146 187 167 156 129 146 144 129 180 216 240 238 251 275 287 279 251 225 210 204 155 130 113 120 125
25 26 4 26 30 42 62 140 113 109 102 83 52 74 107 96 141 153 115 119 138 117 65 66 54 75 107 155 199 186 168 92 75 76 87 142 181 163 163 197 235 258 257 233 235 232 252 279 224 178 169 171 151 91
1 -8 22 68 101 47 78 115 145 125 181 172 153 75 61 77 34 22 92 101 71 96 114 149 106 47 14 -8 -19 13 74 12 29 64 109 118 130 162 186 166 158 153 173 202 217 195 176 177 161 157 159 143 132 166
35 39 102 95 71 64 58 78 98 153 161 146 176 115 102 12 79 139 156 237 312 143 59 -13 -28 -31 -14 -4 10 22 74 101 122 113 118 154 146 149 159 166 167 171 172 159 162 177 170 153 120 89 105 140 180 149
59 91 47 98 -33 5 47 95 71 85 67 63 36 16 22 6 43 87 164 244 118 36 -3 -10 8 24 65 103 104 109 111 128 138 141 151 150 198 205 190 154 143 157 146 129 121 123 120 135 110 126 134 88 86 129
32 18 -36 -33 -59 -80 -41 75 -56 -29 -70 -43 -66 -58 -46 -30 -25 -46 -5 42 20 7 28 53 69 91 117 131 138 156 143 147 167 147 139 134 123 112 113 122 113 109 109 112 88 81 87 90 110 116 108 113 102 99
1 -59 -63 -81 -73 -69 -77 -70 -47 -52 -67 -60 -37 -20 -15 -12 -3 6 13 9 24 30 80 81 74 111 127 151 184 190 127 98 114 126 92 77 97 101 87 89 94 97 85 72 78 79 80 84 87 86 108 112 108 104
-43 -8 -33 -42 -55 -64 -61 -58 -42 -46 -30 -28 -21 -17 -18 -12 4 18 29 30 54 87 105 120 141 134 139 132 117 122 100 87 101 109 118 109 71 44 48 64 82 91 88 88 82 82 81 77 78 77 85 90 87 75
-0 17 -25 -33 -29 -31 -31 -15 -16 3 -2 4 6 3 -3 19 41 59 53 77 104 121 144 135 123 135 146 132 121 120 115 85 79 99 100 91 104 84 78 80 75 83 70 64 68 66 66 60 60 57 47 51 51 47
25 20 16 26 9 27 35 63 51 39 30 26 20 17 30 57 73 68 89 95 117 122 116 137 126 139 130 118 106 96 90 90 85 69 53 59 68 76 83 69 62 43 48 55 62 60 56 47 44 41 40 48 43 39
40 59 71 75 118 114 95 78 58 47 43 24 35 52 60 70 93 95 96 98 108 108 117 123 143 131 124 109 92 75 58 38 18 27 40 39 46 50 53 51 46 45 47 40 39 41 38 40 37 41 37 38 32 32
121 117 132 199 156 124 111 86 69 53 26 30 51 65 71 71 78 106 102 103 92 98 115 113 110 90 89 84 76 63 59 66 66 70 67 72 66 61 48 46 44 35 24 30 39 38 41 34 43 35 31 37 39 34
175 145 147 181 164 140 120 77 78 61 54 55 53 84 115 104 112 86 89 84 97 114 105 95 82 80 85 79 75 65 63 59 72 72 65 80 65 43 38 31 26 26 20 26 29 35 46 30 40 52 54 54 61 53
179 171 203 195 168 116 67 28 40 64 74 94 94 107 84 64 61 76 88 90 92 83 85 82 79 73 63 56 52 45 55 49 55 66 61 47 37 35 31 20 24 18 27 34 36 43 48 44 49 57 61 60 66 61
222 186 146 155 97 21 11 16 29 43 38 64 78 61 38 57 94 92 68 64 67 71 78 67 62 73 69 51 50 59 74 56 48 42 35 24 29 28 22 23 27 33 40 39 44 50 54 55 57 57 63 56 66 61
237 211 160 109 59 40 10 11 27 34 42 55 64 66 82 95 116 97 57 49 65 73 77 83 76 71 67 51 53 45 43 61 67 61 52 40 31 24 19 25 37 39 44 43 46 52 55 58 61 62 59 61 65 69

GFSWCAN_con_3kmhel_063.txt.gz
Helicity
2 1 28 38 19 12 29 52 60 60 59 64 73 76 81 132 104 168 235 147 215 269 240 356 279 192 189 94 82 85 61 87 155 109 114 114 59 10 -28 46 -14 26 33 35 42 112 130 118 183 190 173 83 14 33
25 16 -3 29 32 41 46 39 37 47 40 69 82 89 98 89 154 209 292 263 188 106 363 304 269 194 172 48 90 55 90 101 188 157 175 146 196 100 35 20 73 113 87 -11 -37 -23 4 123 145 97 326 263 34 98
-8 13 34 12 10 31 25 29 32 23 42 38 52 66 76 16 80 329 293 259 163 190 230 337 294 292 149 82 141 95 70 76 127 129 157 177 100 181 62 70 106 155 128 107 93 66 42 55 27 56 102 179 182 44
21 24 9 -2 14 16 8 18 15 13 10 -6 0 46 73 57 155 419 296 224 216 106 307 326 225 173 146 155 133 75 63 111 192 183 113 110 165 148 119 82 126 186 180 151 132 95 35 50 63 96 71 81 174 127
42 23 -13 -6 -1 6 0 4 -1 5 77 60 58 82 121 242 263 285 249 159 276 78 194 205 157 78 102 93 70 94 92 42 87 122 94 24 83 88 131 97 74 94 104 143 49 -1 60 22 2 6 -20 -16 68 3
36 45 -35 -11 -8 -29 -6 -1 17 39 48 19 50 52 31 62 131 223 219 132 186 196 254 247 186 142 145 130 94 76 91 68 56 92 19 92 216 113 94 81 104 130 146 102 86 100 56 19 15 48 37 25 18 36
25 20 30 38 27 25 15 24 24 29 49 49 47 50 18 37 107 101 99 101 69 77 109 202 165 111 80 116 139 112 108 79 33 72 88 100 50 102 173 170 190 183 164 99 78 100 79 44 41 73 87 70 57 49
72 25 44 37 39 25 32 15 20 23 89 66 62 89 107 116 290 180 208 266 194 227 162 152 165 169 123 73 67 88 47 34 60 28 84 59 163 142 127 153 245 205 210 169 237 207 113 96 111 100 56 50 39 62
85 77 48 141 98 53 26 62 98 128 56 136 78 69 156 246 267 201 211 326 263 153 120 92 88 66 92 71 48 68 54 43 74 4 -35 -93 -20 234 159 180 205 250 207 179 229 149 224 280 300 207 93 76 57 71
48 183 154 156 247 191 238 290 280 165 159 219 227 169 204 161 50 135 153 120 118 88 69 67 87 74 80 90 50 42 39 55 41 22 82 102 93 119 155 172 161 198 241 246 171 224 224 247 247 205 211 175 118 113
55 70 76 108 136 116 92 117 188 195 205 143 162 149 74 60 112 106 83 55 42 26 33 25 46 64 40 73 63 74 72 91 80 72 72 56 59 114 98 190 152 159 185 186 164 156 172 168 162 175 220 213 172 207
26 18 17 34 59 103 167 205 206 171 104 84 33 43 70 97 81 53 58 55 8 6 49 -30 -36 -103 -78 41 50 81 83 106 53 126 119 11 -2 66 164 134 87 83 98 111 156 160 166 194 216 247 246 221 214 225
28 29 4 -2 29 75 106 99 94 70 121 170 125 107 80 77 49 73 69 66 42 103 67 54 -32 -46 16 14 37 15 -42 -45 93 139 174 121 158 122 141 105 120 103 90 114 124 147 198 285 394 397 358 318 297 338
38 69 87 24 40 61 86 132 127 109 90 101 116 114 76 56 35 51 49 62 39 58 62 70 8 -83 -32 30 43 -23 34 76 114 135 163 183 210 148 125 139 150 165 193 244 250 264 294 313 336 345 337 344 382 433
30 41 48 46 -2 52 86 86 41 66 57 87 125 84 60 40 36 29 34 28 17 68 72 58 24 11 21 44 134 105 62 53 153 149 171 239 224 191 211 196 184 169 170 192 204 229 245 255 281 306 305 292 295 311
7 17 44 5 10 86 80 66 102 14 -7 -29 61 62 91 44 43 48 34 50 40 63 87 61 25 2 2 21 36 158 100 96 104 136 179 238 258 198 156 166 165 156 159 166 178 182 188 202 203 197 219 233 230 223
23 14 -7 3 28 -92 -14 -24 -16 -38 -39 -29 -56 -40 31 25 64 69 41 70 66 56 37 42 15 30 8 9 21 12 16 11 61 114 95 127 169 162 162 196 210 203 204 194 191 202 189 161 164 200 217 188 189 192
6 19 10 38 22 93 159 64 -4 -7 39 50 34 50 24 47 91 51 68 105 55 36 46 31 -4 14 16 6 21 -4 23 50 69 95 133 112 132 182 197 206 208 215 226 237 239 230 211 194 183 133 117 114 131 139
8 20 37 44 71 109 151 188 130 121 110 77 106 100 102 107 104 130 102 130 116 84 21 5 12 -29 -61 -55 -47 -3 -9 8 32 59 100 159 176 159 154 174 203 228 236 224 216 198 206 237 210 183 181 158 137 103
3 15 28 110 100 109 127 176 225 177 208 189 134 72 93 125 125 78 88 98 36 21 9 -41 -85 -123 -136 -117 -58 32 -14 16 46 104 142 171 190 223 250 223 218 222 241 253 266 236 204 210 203 195 190 179 187 182
40 51 90 100 98 71 112 119 122 149 167 192 159 150 134 94 157 214 207 267 278 143 30 -33 -25 -10 12 37 60 90 143 160 161 143 138 166 149 152 170 179 179 183 184 176 190 183 185 161 109 115 131 165 164 163
52 84 68 81 90 110 87 107 87 101 102 113 108 107 139 156 224 226 298 325 166 77 30 25 53 69 99 110 87 99 100 120 112 105 119 119 150 150 136 101 103 118 107 101 101 110 128 136 144 153 86 98 120 125
88 71 23 54 15 66 70 86 35 39 31 62 54 52 37 27 16 -43 16 146 58 4 11 36 59 81 98 94 91 92 77 77 99 93 92 97 106 114 133 155 120 98 108 112 88 95 95 97 132 172 180 145 110 113
32 -93 -89 -105 -98 -61 -62 -47 28 -10 -56 -57 -35 -30 -17 -7 -1 -7 -3 -1 17 48 26 33 33 78 107 150 188 163 111 107 153 190 92 71 85 101 104 128 149 157 85 70 83 98 108 83 86 116 159 153 128 101
-54 20 -28 -29 -69 -65 -53 -42 -22 -30 -23 -25 -14 -17 -22 -11 -1 2 3 2 35 63 74 103 112 82 92 111 129 160 110 96 126 153 173 138 51 46 60 79 116 134 128 97 73 75 92 103 60 71 97 109 90 96
-20 15 -61 -60 -53 -40 -33 -10 -13 2 3 5 4 -3 -4 18 36 45 28 58 84 118 136 87 96 134 149 118 113 117 140 85 90 123 120 109 144 130 103 73 65 83 104 86 92 74 77 78 80 54 49 59 65 59
-16 -16 -12 17 -2 8 21 42 36 31 28 31 20 13 25 57 59 46 76 79 115 131 144 163 126 120 107 98 89 70 71 81 64 62 59 70 77 84 80 73 62 43 43 67 67 69 52 44 43 54 38 32 30 32
28 38 35 48 81 98 66 61 49 41 39 17 27 42 48 49 52 60 76 85 103 110 127 142 154 153 144 129 80 49 38 19 47 52 51 49 34 26 30 36 49 50 40 33 36 36 45 41 49 41 48 41 38 47
94 71 94 168 140 121 101 80 69 51 3 5 29 32 28 25 39 73 58 63 65 82 111 117 101 82 89 87 81 71 78 101 51 49 75 76 59 39 42 43 33 38 33 23 24 34 38 46 43 37 35 51 60 63
130 122 124 168 158 137 118 73 77 37 13 23 15 43 105 84 58 29 43 46 90 119 100 89 76 79 76 69 59 71 75 73 85 80 93 75 46 45 52 42 34 27 25 36 42 39 42 57 52 66 65 69 72 67
149 161 218 214 174 87 37 20 50 64 53 51 49 41 16 4 15 57 77 79 86 86 96 79 72 74 91 87 69 73 46 31 61 84 78 56 53 35 24 25 23 33 39 47 50 51 53 57 64 70 69 70 74 77
175 155 138 151 88 16 -14 12 31 22 24 31 11 5 -1 32 46 36 34 52 46 59 44 64 110 77 61 65 69 79 70 52 53 62 62 56 52 45 38 28 28 43 48 46 48 50 61 62 64 67 69 63 64 65
305 280 215 152 99 62 -3 10 19 18 26 29 23 27 28 46 63 58 40 56 61 99 124 119 102 99 105 90 72 70 68 59 64 64 57 46 40 35 37 38 41 57 60 46 43 51 54 61 73 73 67 67 69 71

GFSWCAN_con_3kmhel_066.txt.gz
Helicity
75 78 55 11 8 16 5 35 31 43 44 55 45 26 28 41 46 146 177 151 215 159 206 316 240 289 247 151 174 112 146 132 149 161 164 156 175 211 140 148 96 -51 -109 -53 11 10 382 192 162 179 162 199 146 156
140 84 56 12 14 7 36 36 39 47 45 34 51 78 55 25 78 83 243 204 212 97 78 160 260 213 122 132 160 186 130 112 150 220 196 162 166 189 172 87 170 32 -5 -15 -29 43 -48 36 19 96 214 205 169 219
22 14 10 4 -1 4 17 30 38 37 36 54 64 63 43 49 56 200 255 333 270 187 74 53 114 299 251 245 235 211 146 88 109 138 115 114 121 109 121 84 100 96 101 74 61 27 -24 -53 18 65 50 93 16 87
26 25 24 9 -1 9 1 -4 9 23 30 47 63 59 52 50 69 204 364 260 277 209 112 119 84 154 200 200 194 168 133 101 67 69 131 107 76 112 71 80 110 85 60 56 113 155 128 114 97 74 23 76 47 65
32 10 17 -20 2 8 8 10 24 11 12 43 14 21 50 56 56 282 308 247 273 194 52 -3 222 202 151 149 155 100 99 111 78 70 122 93 73 107 98 49 34 -1 38 72 71 68 115 129 203 161 101 40 12 39
25 18 29 9 10 -6 11 16 47 -5 14 2 15 59 37 115 163 406 254 166 120 58 5 235 201 174 150 134 162 139 44 80 85 87 64 90 132 96 47 21 162 200 262 218 147 167 73 39 11 51 40 58 88 62
19 26 7 10 15 10 44 31 39 4 26 21 27 9 177 269 299 215 74 29 74 -24 -15 236 214 148 143 151 170 151 94 58 53 65 61 33 -15 50 65 32 67 142 225 261 279 231 143 135 83 129 169 145 119 83
14 -16 13 16 13 4 39 54 67 82 105 148 260 209 254 279 284 213 79 111 94 83 107 73 167 168 164 107 108 87 96 93 89 59 101 70 76 71 48 95 154 130 85 128 320 209 134 175 218 188 156 139 129 119
43 -5 8 14 24 31 50 76 94 26 104 92 18 45 161 138 138 136 64 116 241 202 112 85 119 126 149 112 99 86 77 86 77 46 75 100 77 87 144 124 81 119 101 76 167 114 149 186 210 225 200 186 98 84
170 134 95 201 105 95 148 140 122 45 74 240 369 212 176 209 250 236 139 192 110 90 72 57 83 96 60 89 89 81 66 35 13 27 78 117 118 68 98 107 156 175 158 142 14 55 108 128 115 158 181 183 158 134
88 82 119 171 182 128 101 131 118 64 77 202 253 253 298 331 246 231 171 145 130 79 73 82 64 41 56 66 39 83 52 49 26 35 82 103 141 140 133 99 153 201 142 106 109 85 73 68 98 136 164 183 183 176
49 78 107 137 139 144 128 97 50 40 58 73 66 163 195 221 181 123 140 133 74 59 77 74 66 65 58 74 45 53 21 72 24 98 119 148 123 125 60 64 116 103 139 184 177 120 126 124 132 172 214 228 245 260
66 77 94 135 139 142 116 118 139 139 156 140 124 138 106 125 70 62 42 61 49 95 90 58 8 -36 28 30 43 59 49 42 75 136 140 159 152 148 98 100 139 149 134 182 218 171 158 203 259 255 262 321 372 438
26 39 67 73 63 94 92 69 127 110 93 130 105 91 79 87 85 133 111 84 100 111 94 24 -17 -59 -30 16 17 43 70 107 87 107 133 104 161 163 153 133 147 148 147 215 221 257 287 302 341 394 406 373 373 381
26 36 50 87 62 86 80 74 96 40 64 98 84 69 70 118 104 96 79 76 90 115 84 58 30 18 29 4 30 32 -7 -5 -11 24 104 173 176 144 146 162 158 156 194 244 249 257 251 255 278 310 315 307 305 313
-18 -3 48 110 154 109 67 49 109 50 69 45 50 110 143 99 127 106 83 73 64 98 62 49 18 26 17 11 31 77 14 -9 -1 93 165 249 203 192 197 166 149 159 173 167 180 183 173 178 182 185 214 222 207 198
2 12 11 84 148 70 65 9 34 21 29 58 75 95 82 72 97 103 69 89 88 68 22 17 48 56 15 7 16 63 6 84 142 173 147 171 174 155 152 166 174 179 191 192 180 160 135 117 128 172 199 171 175 174
16 30 25 112 66 61 71 -6 -28 -21 14 53 8 78 72 75 110 72 94 108 50 31 26 -5 -2 28 35 24 38 -7 16 54 77 104 133 123 148 190 200 213 226 224 226 230 230 238 239 211 196 158 145 138 153 154
44 49 83 139 131 92 18 29 36 46 60 71 104 91 78 103 121 122 97 126 124 108 49 14 4 -0 -7 -57 -81 -105 -91 -59 -28 8 61 124 138 146 163 192 200 211 220 209 195 167 162 184 153 139 125 109 120 106
44 52 85 137 114 207 164 184 204 151 141 101 69 84 127 142 147 134 139 123 58 9 -3 56 49 -21 -52 2 5 2 15 25 38 75 97 115 99 122 140 133 138 142 157 170 181 159 146 153 140 122 113 113 112 117
50 100 71 83 123 119 172 159 175 182 208 193 112 121 81 158 204 251 254 245 281 218 110 3 -26 -16 10 47 60 76 66 63 65 54 43 69 66 91 102 109 123 136 143 145 143 145 141 123 99 98 109 110 98 103
97 74 67 106 155 161 127 124 125 133 147 140 186 174 218 245 265 259 332 331 150 47 -27 -24 -18 -9 32 57 62 65 62 88 98 108 116 109 132 136 146 120 110 136 136 125 119 121 133 107 88 90 90 86 96 92
80 66 91 137 123 96 111 94 67 72 59 75 59 93 110 111 57 -4 20 34 -52 -62 -36 1 29 56 66 58 76 84 77 93 110 107 116 128 129 127 146 143 102 99 103 107 78 86 89 104 129 107 94 91 86 93
73 69 93 76 59 67 70 65 67 62 46 6 -1 -14 -5 2 -20 -27 -37 -13 -21 -26 -15 20 39 79 96 135 148 115 88 83 111 111 74 91 111 120 119 125 122 98 60 63 78 71 89 101 118 122 111 105 92 62
70 104 65 52 86 1 -18 -37 -39 -55 -16 -21 -19 -35 -39 -25 -16 -42 -57 -65 -30 24 48 66 76 86 97 102 115 122 94 91 115 139 122 71 67 74 95 109 129 126 75 80 82 75 68 82 97 104 94 80 80 61
-48 50 -6 -22 -49 -53 -48 -31 -36 -20 -10 -1 3 -9 -9 18 32 18 -18 -8 14 50 76 82 105 125 122 96 107 110 92 77 99 127 110 81 71 67 65 80 85 94 86 55 64 83 87 65 53 58 60 55 57 68
-36 -4 -17 -21 -37 -13 -1 13 9 12 17 17 9 18 31 52 46 23 25 13 38 54 99 94 89 110 108 105 93 84 77 79 85 72 61 76 75 58 55 67 79 52 41 63 65 54 48 51 51 42 46 51 44 46
32 20 22 38 50 62 39 28 26 28 28 10 25 41 49 46 33 12 8 37 68 101 125 122 111 108 113 98 69 68 72 56 69 70 68 66 49 43 55 65 51 54 47 34 33 36 41 47 51 56 58 53 48 46
81 57 68 147 109 82 68 58 46 38 -4 12 30 23 11 -3 -11 19 33 46 64 99 138 144 120 104 110 101 100 88 72 83 78 61 59 48 43 40 29 42 52 39 16 21 25 48 51 53 54 50 56 58 51 54
128 107 99 148 158 131 120 70 57 24 11 14 1 26 69 45 3 -2 35 57 66 68 52 59 62 85 65 65 56 73 79 70 53 69 89 57 33 26 37 40 33 37 38 47 50 42 54 79 90 82 77 77 79 79
123 146 213 225 193 119 73 45 96 95 49 55 43 42 -10 -27 -8 6 29 57 81 86 112 106 86 58 87 82 74 79 60 55 72 77 73 63 45 39 30 22 31 42 50 55 60 55 62 69 75 81 84 76 66 75
129 121 153 170 94 11 32 93 78 95 52 40 5 -8 -18 -12 -19 -27 -6 25 60 59 53 78 87 49 42 60 66 58 67 80 73 71 78 66 56 45 47 59 57 58 61 65 69 67 63 66 70 77 74 65 67 72
219 240 254 203 122 64 14 48 49 47 36 21 -3 -11 -6 11 13 6 9 14 27 65 83 87 72 60 54 60 59 51 55 55 53 58 58 52 48 45 43 50 57 66 72 66 64 67 75 74 76 74 71 74 76 76

GFSWCAN_con_3kmhel_069.txt.gz
Helicity
110 108 36 50 86 26 8 3 17 33 35 48 56 57 61 52 57 166 258 202 246 321 281 329 243 288 292 264 225 114 134 110 157 153 122 94 59 52 101 135 131 121 89 112 111 34 -90 -58 126 69 105 192 172 235
34 18 14 21 24 20 23 13 19 44 30 55 64 57 48 40 28 90 205 165 162 255 279 217 158 234 134 200 262 182 86 72 120 152 192 121 112 122 67 114 168 162 155 151 72 -12 43 21 -6 -191 61 126 222 353
34 -3 12 2 3 15 18 16 16 42 53 31 44 75 47 41 42 72 190 196 219 216 188 141 176 75 106 53 195 188 148 109 115 129 129 126 124 85 107 153 135 143 148 125 127 53 29 168 74 55 -35 -59 83 51
20 10 8 6 4 11 19 38 30 46 39 54 48 40 33 42 21 70 153 234 268 226 201 197 71 79 152 46 101 135 101 162 122 107 149 156 150 105 128 123 134 89 82 66 42 52 34 32 17 -2 38 -9 17 43
22 16 5 14 2 2 -2 17 14 31 39 55 57 51 29 22 52 95 206 350 239 219 106 162 75 94 104 84 183 216 213 188 155 151 145 116 122 160 130 158 153 203 106 52 41 32 13 48 92 40 60 14 19 7
13 11 13 16 11 2 6 22 15 -0 28 39 43 54 51 45 240 400 396 255 243 139 78 97 36 -9 117 115 138 155 130 119 114 66 78 111 141 174 149 145 185 159 127 115 -0 67 38 48 91 80 50 3 90 93
-2 11 15 24 21 51 19 -16 -5 26 18 25 54 66 82 146 209 223 121 86 283 170 55 39 98 166 195 254 226 165 150 105 106 82 71 48 65 52 51 140 184 187 234 147 219 147 75 131 108 160 115 138 140 179
-9 21 29 26 26 62 59 19 30 34 11 38 58 73 137 193 172 140 141 118 303 100 -5 6 145 200 190 192 139 71 107 128 119 67 72 68 89 92 65 56 110 74 94 127 92 157 89 97 153 220 185 174 163 167
24 65 74 74 90 85 132 144 88 124 248 264 213 209 224 259 249 125 -19 95 181 27 -58 8 226 207 176 164 124 137 103 93 86 77 77 79 108 87 135 125 101 105 109 87 121 77 129 120 119 168 168 192 146 169
180 107 124 133 135 160 33 32 -2 120 141 203 216 163 215 166 145 128 107 104 136 92 22 41 111 107 133 142 93 85 83 67 57 43 100 172 198 183 171 129 78 66 76 69 60 42 105 115 80 108 130 117 130 134
143 147 119 106 107 90 50 147 237 217 218 191 167 212 203 166 188 77 137 203 162 96 98 52 58 82 119 90 83 58 62 69 63 67 146 167 198 164 120 92 137 94 95 98 79 104 108 97 97 82 107 151 153 179
107 127 136 85 57 68 70 72 163 213 216 315 274 199 185 204 117 121 236 238 179 96 81 61 73 73 64 67 79 75 60 68 55 155 169 189 156 153 133 124 140 154 129 93 112 103 96 111 120 119 122 138 164 175
84 97 113 138 100 95 80 97 109 139 201 208 176 145 168 145 83 77 109 184 132 83 88 105 82 88 95 85 89 38 29 41 93 179 121 108 109 131 113 77 93 124 106 127 142 155 147 159 224 207 211 222 230 291
37 55 95 123 117 72 43 66 127 115 94 100 84 61 76 83 64 129 171 145 125 98 99 67 87 104 92 75 42 3 65 64 57 92 100 99 99 94 102 95 106 152 199 209 232 218 205 243 316 307 301 283 295 334
7 43 56 125 99 74 77 51 30 56 91 56 64 31 52 146 175 170 191 129 143 147 68 45 38 21 76 41 62 30 40 93 89 92 132 160 155 120 102 104 116 136 181 235 236 249 261 267 261 275 266 245 241 245
-19 10 92 156 87 81 59 48 58 32 68 52 54 112 180 127 183 146 129 114 110 114 56 62 6 -19 -5 -4 16 58 14 34 -0 25 140 165 171 160 146 150 156 155 160 181 206 188 188 201 193 163 196 205 194 190
-25 -73 72 155 129 85 30 57 78 63 37 76 148 151 133 113 125 116 108 118 114 39 1 1 12 16 -15 2 20 59 71 116 167 195 172 180 162 161 151 161 177 193 225 207 163 157 148 128 130 182 202 177 175 161
-30 15 111 153 145 211 109 59 42 76 74 124 106 147 106 103 129 79 89 95 22 -1 -8 -8 1 11 7 25 50 4 51 67 59 41 33 47 79 106 101 116 140 131 128 148 159 165 162 146 142 119 114 115 138 133
14 48 99 114 28 21 -0 24 14 46 79 70 86 107 82 87 126 100 69 81 80 47 14 -4 1 61 64 3 -10 -18 -28 -14 6 25 53 71 78 88 83 85 103 123 127 120 112 98 104 124 99 82 81 85 95 81
59 101 91 44 25 58 -4 39 80 57 74 68 88 108 92 96 129 132 116 102 50 10 45 49 -14 -55 -49 -13 -16 -10 -6 -6 16 40 51 66 64 93 116 109 117 112 122 130 143 128 114 128 126 112 103 103 103 106
60 93 105 108 226 161 100 79 105 130 171 154 105 127 115 184 247 245 223 235 325 189 51 -16 -31 -30 -10 13 14 22 23 26 47 42 41 71 77 86 107 120 124 131 140 139 133 141 140 115 84 94 114 113 103 108
79 60 90 151 211 209 147 147 119 137 169 164 201 148 193 259 300 294 232 245 117 67 -29 -44 -23 7 43 56 55 66 65 100 103 108 111 96 123 131 135 120 119 131 130 115 97 92 90 77 75 75 77 78 87 91
75 78 153 204 176 141 136 145 117 135 129 145 117 135 112 118 87 46 45 104 -13 -39 -28 2 36 50 61 62 78 96 88 99 118 113 114 122 128 129 128 126 109 98 102 106 89 92 82 73 87 75 66 70 72 83
58 70 115 101 68 67 72 64 76 75 55 57 69 68 73 -6 -33 -11 -32 -98 -86 -83 -48 -9 17 47 71 104 120 111 98 81 113 118 93 102 114 111 104 106 105 94 70 66 81 88 92 92 79 84 75 71 63 56
69 108 74 106 85 50 37 22 23 -24 -55 -57 -38 -47 -45 -39 -35 -45 -62 -82 -64 -11 5 38 62 81 102 99 101 101 78 76 94 108 91 70 62 67 82 84 83 70 33 77 67 78 73 83 92 87 72 57 47 39
71 110 57 54 64 36 10 -33 -38 -27 -22 -18 -25 -31 -36 -3 8 -0 -21 -23 -7 22 37 70 93 116 120 94 86 80 65 59 90 99 71 41 43 46 44 57 60 64 54 46 64 74 68 57 58 59 54 38 37 42
-0 30 44 64 -56 -35 -26 -6 -9 -8 5 -5 -18 -2 17 27 22 14 13 7 34 29 42 56 91 113 115 109 98 75 69 70 76 75 60 74 71 55 51 60 56 39 43 48 49 49 44 35 39 42 42 32 35 38
14 61 29 66 46 53 28 6 1 6 1 -10 12 23 36 37 33 12 -1 23 80 107 120 113 98 91 102 88 64 85 91 79 87 79 74 68 53 51 55 51 43 44 38 32 36 35 41 48 51 50 51 52 42 48
106 92 79 157 102 65 41 23 14 4 -27 -2 31 39 29 17 -3 9 24 36 63 107 137 141 120 106 108 97 82 62 69 72 76 59 57 47 35 26 42 45 44 34 28 29 24 45 52 55 57 53 54 55 52 59
139 120 100 129 145 129 108 65 46 23 18 22 27 55 94 62 19 7 36 39 54 69 63 69 66 76 59 65 54 54 50 39 50 74 73 62 43 29 25 31 38 34 36 44 47 43 55 66 88 82 81 78 77 77
139 133 155 237 229 152 94 76 97 110 79 115 130 109 55 9 3 -8 2 20 54 75 101 78 51 54 86 65 55 59 35 26 33 29 36 52 47 31 25 26 29 35 44 54 58 56 57 62 69 74 76 69 64 75
155 152 180 218 150 92 128 117 101 134 97 80 60 29 13 -0 -15 -23 7 40 74 82 60 78 96 60 47 40 40 35 41 63 51 46 54 50 42 32 33 35 43 53 58 64 64 63 66 63 60 65 67 63 66 72
198 229 263 235 184 115 95 117 116 98 75 56 30 5 1 14 12 -2 10 21 38 57 67 45 45 60 49 45 49 43 45 49 44 44 45 44 41 40 42 46 54 61 66 63 60 63 67 70 70 72 74 76 77 83

GFSWCAN_con_3kmhel_072.txt.gz
Helicity
60 106 44 -16 30 31 9 83 27 1 13 20 40 47 43 61 64 116 174 160 307 363 301 264 304 359 356 289 239 161 147 90 121 94 91 73 49 49 56 64 70 86 81 98 96 78 44 -9 -2 1 26 21 87 139
71 -3 6 -7 8 21 13 1 76 15 3 22 16 62 61 36 47 116 245 317 332 301 269 283 259 233 200 233 230 212 126 85 109 128 111 66 95 99 63 59 95 92 124 84 100 88 95 68 65 52 64 -8 -17 74
18 24 6 16 7 21 17 15 31 65 22 29 44 25 45 55 57 88 200 244 328 264 238 214 214 103 167 108 97 158 128 80 80 74 90 75 108 72 91 75 88 110 99 107 78 24 18 2 -41 -15 24 104 12 -30
38 19 15 25 21 4 2 10 36 37 27 68 52 34 34 64 73 170 252 209 268 236 210 212 47 54 15 27 57 39 67 75 40 109 112 133 129 74 87 85 98 90 109 109 77 59 30 36 34 -42 63 20 50 2
20 18 15 25 10 15 -1 -2 15 33 36 40 102 74 22 47 65 137 188 187 212 207 80 128 160 121 25 -17 15 -5 43 67 64 84 101 83 83 87 74 88 105 142 147 155 124 154 72 34 31 94 109 112 62 29
7 13 20 9 -18 -1 -11 3 13 17 42 46 36 24 61 52 69 134 119 89 105 82 122 100 16 159 178 141 65 3 53 106 92 125 116 96 122 100 74 88 159 208 224 207 131 110 55 -24 -33 76 72 88 100 115
11 36 30 47 41 19 5 3 -1 22 45 49 37 27 35 28 73 84 97 9 117 137 66 106 80 80 123 141 78 125 92 121 121 151 114 78 64 79 83 86 140 173 204 222 163 91 29 50 15 88 80 91 69 111
11 38 61 58 -2 3 11 17 23 39 18 75 76 62 26 64 193 130 128 126 257 198 118 66 73 151 117 117 92 115 115 114 69 90 92 87 92 122 126 149 155 137 77 84 125 129 55 30 102 96 65 92 85 94
41 20 1 83 105 113 18 -13 15 62 69 51 100 139 214 288 171 165 23 144 204 94 14 -56 -61 184 137 159 156 139 130 145 136 119 124 111 124 143 176 159 156 121 84 83 118 88 77 17 59 84 70 78 67 83
65 53 -19 1 -11 32 163 211 195 174 199 251 351 272 248 158 91 99 128 78 59 45 0 28 30 147 178 255 246 211 131 93 101 67 114 172 179 191 193 142 117 107 93 97 108 76 76 52 42 44 55 50 56 72
111 71 36 39 73 142 208 106 180 170 190 264 192 193 125 156 153 122 88 64 43 28 24 96 130 116 170 78 116 91 81 80 76 81 110 145 185 218 186 124 121 100 86 83 78 43 62 76 74 51 87 74 96 142
87 86 72 68 87 88 130 158 204 158 98 231 190 323 217 137 53 42 130 129 104 51 54 76 114 110 114 118 97 87 79 61 76 111 154 157 171 146 138 130 111 75 65 66 114 102 94 97 90 90 101 131 170 173
76 83 79 66 56 74 124 168 255 152 151 93 162 168 132 74 73 93 106 117 57 65 51 46 51 82 99 92 85 71 59 93 99 124 193 161 140 142 130 115 115 118 109 89 96 74 85 133 143 103 127 162 210 279
61 72 94 84 11 51 114 165 183 97 74 106 133 108 74 59 83 135 152 125 107 69 68 92 107 90 105 93 82 72 103 107 64 106 159 182 183 153 140 121 131 133 127 120 119 116 185 234 227 217 241 244 263 308
28 71 73 108 71 11 9 47 87 95 48 80 77 42 51 120 164 176 178 135 122 104 101 119 155 108 134 112 95 21 -26 -33 3 43 137 160 183 180 166 158 145 148 170 193 200 225 235 242 275 296 263 247 243 227
22 19 99 161 90 60 8 -12 19 35 28 25 40 59 147 134 214 186 172 144 155 141 86 53 0 -17 -17 -26 -49 6 -50 -58 -34 1 110 176 200 181 169 153 163 162 153 170 194 191 198 193 170 149 177 201 185 160
-10 -11 136 197 149 110 105 33 29 28 5 32 78 150 131 121 146 159 157 151 134 40 -1 0 -18 -12 -26 -33 -24 -55 -42 -60 9 83 104 114 103 100 115 96 112 119 128 124 116 117 102 86 97 139 179 159 149 141
-6 53 140 151 123 145 164 113 66 51 82 141 101 168 126 111 139 129 135 109 12 -43 -28 -56 -42 -10 -12 -28 4 -39 14 59 73 77 69 64 81 100 99 101 80 77 82 87 88 99 103 103 110 88 82 85 104 100
25 78 160 102 71 66 69 99 85 75 113 109 116 114 85 108 115 93 87 84 71 29 3 -1 -9 -15 -35 -48 -37 -27 -28 -26 -1 19 41 61 76 92 97 96 100 107 111 106 103 99 99 111 85 65 57 56 70 53
85 70 110 83 86 63 38 71 79 76 87 86 96 115 77 75 84 91 110 94 45 10 22 -25 -92 -111 -96 -95 -73 -48 -33 -13 12 42 53 57 52 81 108 93 101 85 98 110 122 99 87 107 103 79 74 74 81 82
33 90 85 85 111 48 35 80 115 101 83 72 70 87 95 154 199 225 222 184 182 64 -57 -114 -94 -75 -44 -13 -7 10 21 34 49 54 63 97 95 105 116 104 99 105 124 117 109 112 111 87 67 72 91 99 85 85
51 46 127 159 161 105 92 145 81 100 122 110 165 123 112 181 228 242 180 220 77 -21 -102 -93 -57 -18 22 32 47 59 69 99 102 113 113 106 118 118 120 102 94 108 105 93 80 79 82 71 59 64 69 74 90 93
45 55 146 226 169 120 138 199 162 157 100 110 92 93 62 58 14 -34 5 49 -17 -48 -38 -14 17 44 67 69 91 99 83 100 107 99 98 101 102 95 94 100 83 74 87 90 68 71 65 51 60 58 55 68 75 87
46 83 130 110 75 62 89 77 108 90 67 59 47 27 -4 -30 -52 -24 -18 -41 -42 -29 -11 9 18 37 57 94 119 119 107 79 114 115 86 87 100 100 85 82 78 73 60 53 71 70 65 64 51 62 65 71 65 55
65 110 88 121 105 58 60 60 65 60 43 47 5 -52 -61 -59 -38 -41 -44 -51 -41 -21 -14 13 37 57 77 88 93 103 82 80 96 109 96 80 68 67 79 80 77 60 38 65 63 82 81 80 87 82 61 51 41 30
68 112 61 66 82 54 63 50 31 21 -21 -37 -44 -44 -46 -22 -8 -8 -22 -14 -4 3 11 45 68 82 92 91 106 103 91 70 87 90 76 60 58 60 56 61 57 56 49 48 54 60 62 58 57 58 51 40 37 38
64 73 73 89 58 19 -14 -5 -22 -43 -35 -24 -26 -14 2 22 13 -6 3 6 20 13 30 46 64 85 105 107 101 76 71 69 76 77 63 69 69 56 57 55 45 27 32 35 34 38 38 32 33 32 36 27 23 32
75 120 -1 97 53 68 33 -3 -23 -25 -18 -15 4 14 35 40 32 11 4 11 60 95 97 93 94 98 105 108 82 99 107 85 86 71 65 72 60 54 56 57 48 46 38 32 34 39 39 45 45 42 40 36 34 44
106 115 83 166 127 78 31 -8 -16 -22 -23 -10 19 29 34 27 4 17 36 43 70 106 121 124 115 104 113 93 72 57 76 74 66 58 51 38 34 25 32 30 25 24 23 30 23 39 47 48 50 48 48 50 49 59
162 155 109 123 105 73 70 57 51 22 6 26 32 79 119 88 47 16 40 52 64 83 79 86 89 93 85 91 77 66 51 51 60 70 61 42 35 35 41 29 22 21 26 40 47 41 58 64 79 66 68 66 67 67
192 173 161 200 219 157 115 112 118 118 97 120 112 119 72 34 16 12 31 44 81 100 130 115 89 79 100 85 79 78 48 39 46 36 37 40 43 42 33 27 28 36 44 49 52 57 56 55 57 58 57 55 52 64
193 156 208 267 196 134 178 160 141 148 105 86 69 45 37 34 23 -1 8 53 96 100 77 98 97 69 56 49 47 41 44 60 52 44 52 53 48 39 37 39 45 51 57 58 56 54 55 57 54 56 57 52 58 62
233 255 305 276 241 166 134 148 136 110 95 75 50 36 36 43 39 12 28 34 53 90 95 74 71 77 81 72 56 49 50 55 54 58 55 53 46 39 40 42 46 53 59 57 53 50 53 52 52 55 59 64 63 68

GFSWCAN_con_3kmhel_075.txt.gz
Helicity
16 50 59 42 11 7 31 23 30 38 63 71 20 51 4 -2 -26 -6 81 125 85 61 30 -26 133 204 287 269 171 133 130 80 93 94 112 96 62 64 64 55 64 57 66 82 20 12 50 13 27 67 43 41 54 161
62 72 19 45 20 19 26 20 23 21 20 106 27 48 10 17 -10 -30 102 145 183 132 109 197 146 216 204 283 209 228 125 78 99 121 107 75 59 61 46 72 73 57 49 55 46 35 45 50 4 4 -11 -7 37 69
103 28 32 20 23 25 35 32 17 13 21 80 28 42 34 45 3 19 217 237 283 284 238 175 198 187 131 58 118 144 88 96 90 65 100 98 77 57 55 56 69 70 51 57 37 6 13 15 -71 19 -18 -24 -17 39
21 27 28 20 27 15 20 20 5 12 12 61 31 51 13 65 70 222 257 272 329 304 233 167 179 156 71 161 139 90 78 150 74 93 108 106 93 63 79 83 80 75 78 62 44 18 -17 2 75 28 71 32 22 31
6 8 3 12 34 10 -8 -11 -15 7 28 74 63 63 36 47 70 325 284 285 276 261 141 238 135 80 83 64 33 29 70 48 56 87 101 110 109 94 100 98 98 75 79 85 74 106 70 29 43 30 22 33 69 103
-7 -4 5 -19 4 13 7 -5 9 10 25 49 39 62 49 42 137 288 235 79 110 187 206 163 96 143 65 29 -14 -43 -3 17 63 111 89 -7 55 84 73 91 97 115 143 144 137 119 70 22 9 55 32 47 63 55
-33 28 18 5 22 2 -6 13 -11 19 25 55 62 42 34 86 180 246 201 108 8 163 187 156 130 92 49 49 81 53 47 74 70 67 82 80 75 84 99 88 144 149 145 125 126 106 87 101 62 57 31 64 66 62
-12 -4 22 50 38 14 10 14 -6 28 46 50 63 5 44 96 100 190 130 31 136 103 111 126 114 93 83 129 144 156 163 168 117 91 113 127 133 121 78 168 171 149 112 100 145 146 98 69 87 99 74 62 113 116
-12 24 52 94 22 72 65 40 -26 58 31 50 48 31 146 132 63 95 36 98 118 68 52 62 60 65 123 120 91 55 121 181 100 140 102 78 108 145 215 188 166 123 108 93 81 91 131 108 90 75 70 -13 79 100
7 0 16 79 123 102 146 177 85 100 145 232 352 247 86 79 52 118 89 40 32 37 38 14 6 24 82 138 154 103 100 85 77 120 133 159 220 259 231 169 98 85 81 79 83 103 110 111 56 53 45 39 12 17
21 -20 48 65 62 126 94 175 183 230 195 239 278 137 57 114 85 78 30 18 15 22 20 11 35 49 165 148 129 132 102 113 135 129 139 150 150 146 169 125 108 98 110 105 84 57 55 50 44 51 58 66 52 46
64 24 59 74 63 32 52 55 88 88 171 197 169 213 100 102 83 48 45 59 38 22 48 59 80 108 203 175 108 126 142 179 95 124 140 129 158 147 147 138 139 137 119 105 100 98 95 82 82 119 90 97 97 109
60 46 50 85 90 128 79 98 141 147 143 215 223 181 126 75 56 59 41 45 67 65 89 110 109 98 117 82 53 79 82 101 105 141 162 171 162 131 112 95 111 114 112 120 138 131 128 135 141 141 149 170 176 202
65 76 60 71 71 166 124 53 65 127 94 86 88 54 66 66 69 91 85 75 55 75 92 102 93 86 129 108 110 59 112 103 -64 -8 104 145 156 124 113 122 121 133 145 152 150 156 170 176 187 199 230 219 231 253
27 49 88 79 28 69 61 85 81 45 60 43 48 35 36 92 116 134 123 87 85 123 100 61 62 61 108 80 97 32 -35 -76 -59 -37 102 123 140 113 124 149 152 127 134 126 134 156 167 173 183 221 217 197 205 201
19 17 110 111 53 -7 13 54 118 37 17 18 30 45 117 121 169 150 165 136 143 129 91 62 10 -6 -11 -27 -23 -11 -41 4 -27 -16 90 103 115 120 128 132 131 126 124 128 134 124 125 130 127 126 139 149 144 138
16 26 111 112 69 69 24 37 50 31 40 59 63 129 118 101 127 129 117 100 106 38 -17 -13 -5 -2 -10 -4 26 31 37 17 3 109 123 110 107 114 123 136 118 116 120 109 84 70 65 61 67 94 130 109 103 102
25 72 132 122 77 112 138 92 31 19 48 108 64 136 119 90 89 79 108 92 27 -6 -9 -28 -33 -15 -11 -19 -18 -57 86 95 95 77 63 52 68 92 85 92 66 63 65 73 78 81 84 83 88 78 67 62 71 65
32 97 119 71 61 75 93 108 64 43 84 103 102 102 101 122 107 95 99 82 67 53 -10 -13 -53 -43 -19 -20 -23 -21 -20 -14 7 17 34 53 70 83 89 78 83 93 104 99 97 100 87 96 73 55 45 41 60 49
66 129 94 94 75 88 100 110 115 80 68 81 99 95 67 70 78 68 64 56 37 24 -15 -5 -16 -23 -54 -64 -45 -20 10 32 44 62 67 66 62 81 96 87 91 79 84 93 103 90 88 95 93 76 66 64 66 73
75 152 123 133 130 68 85 97 87 85 57 57 72 88 49 95 106 118 133 104 34 98 -19 -85 -80 -73 -49 -17 -2 13 28 29 41 51 67 90 79 80 88 84 81 93 96 89 87 91 93 82 67 62 76 89 77 72
112 119 125 142 94 66 68 119 60 58 68 58 81 76 71 126 192 230 210 195 85 5 -40 -54 -43 -27 -4 16 34 46 57 85 94 101 97 91 101 103 104 88 79 93 95 88 75 77 84 74 63 64 71 72 77 75
71 110 133 100 46 69 120 150 125 93 55 67 91 81 71 85 71 26 -53 45 0 -40 -43 -29 -7 20 45 46 63 78 80 101 116 115 117 120 117 110 109 114 96 88 91 97 77 73 72 61 64 62 57 67 68 74
42 60 75 42 54 81 94 92 119 117 77 48 29 18 3 -72 -52 -39 -17 -42 -34 -34 -15 7 14 38 50 71 91 98 99 97 122 119 95 97 108 106 91 89 89 86 76 62 67 66 57 54 45 53 55 65 63 61
72 94 61 92 124 73 69 68 70 54 10 27 -18 -51 -79 -64 -42 -27 -23 -32 -33 -25 -14 7 31 46 67 75 86 96 68 82 105 119 84 71 74 67 72 67 66 61 42 49 49 46 48 43 42 49 44 40 40 36
97 116 50 50 76 43 63 32 17 21 15 1 -31 -57 -49 -18 -2 8 -2 -3 -2 7 15 37 56 77 91 87 101 103 98 64 81 92 72 53 56 57 59 59 55 57 53 49 49 51 51 43 37 35 29 24 27 26
55 71 74 92 74 60 35 60 52 -24 -32 -35 -31 -19 -8 22 29 12 22 14 22 19 32 37 51 83 105 109 109 83 71 71 82 79 57 56 56 49 50 53 53 49 48 49 46 36 32 27 27 27 29 25 22 25
75 121 71 138 67 74 38 4 -27 -38 -40 -26 -4 1 22 32 35 18 6 11 50 67 78 86 98 103 106 101 84 86 100 70 67 54 49 63 57 51 56 56 49 53 49 39 36 31 30 32 33 33 26 24 29 33
124 168 114 149 114 83 28 -17 -32 -36 -26 -1 15 23 32 28 13 19 22 20 31 70 98 119 123 112 115 95 78 72 73 73 72 73 62 49 40 37 36 37 39 39 33 31 28 39 41 41 38 36 34 34 40 46
170 164 92 101 83 40 34 18 34 29 13 19 32 75 130 105 64 17 17 21 36 62 70 87 93 96 102 99 90 70 55 56 62 66 57 41 35 33 34 35 36 35 34 36 39 40 56 56 62 44 43 41 44 43
170 155 146 165 145 122 95 103 105 125 120 146 145 130 85 38 15 6 6 12 50 79 107 102 99 89 108 96 86 80 63 58 59 58 51 48 48 40 26 27 30 33 36 40 43 46 49 47 41 36 33 33 39 49
182 144 163 270 193 129 184 189 176 171 134 110 89 61 56 48 36 -2 8 36 57 69 67 87 101 83 57 66 55 46 53 74 77 76 78 64 59 50 39 31 31 33 37 42 44 45 42 38 33 29 28 29 37 45
205 263 308 261 230 186 166 186 178 145 116 85 59 41 45 50 50 15 11 12 25 50 73 66 77 82 78 71 65 63 67 72 72 71 64 61 58 53 45 39 36 33 34 36 38 37 38 34 32 31 31 35 42 49

GFSWCAN_con_3kmhel_078.txt.gz
Helicity
36 22 26 37 8 8 34 33 14 29 30 46 54 91 58 61 88 108 110 91 70 64 16 1 12 -1 -32 -23 30 81 110 110 80 64 75 79 88 58 59 59 47 56 86 97 66 74 47 62 27 87 188 183 127 72
52 78 25 6 32 31 21 27 14 28 29 37 52 93 74 43 63 84 200 152 114 44 21 13 -3 -2 -25 21 60 134 126 37 62 78 96 91 79 86 41 72 46 60 43 51 51 38 34 24 71 6 -3 -30 1 15
87 34 -5 18 28 36 44 52 45 40 43 26 38 78 98 74 38 52 261 190 80 31 -12 -38 -29 25 62 36 111 94 81 56 78 58 73 67 83 44 62 40 59 48 37 30 48 51 55 58 -11 -8 -16 -28 -25 -20
32 -11 20 28 20 26 24 20 11 28 29 18 27 97 110 79 3 15 138 47 146 113 8 -51 -51 75 86 52 90 102 19 39 60 92 72 53 61 62 57 76 60 81 50 45 36 28 43 55 81 56 36 2 14 32
-13 -4 21 16 14 30 28 15 2 18 -4 11 48 91 68 54 6 80 139 113 90 135 14 -5 5 27 46 35 10 2 38 32 70 87 81 64 53 42 42 60 40 39 62 50 55 72 44 40 43 3 14 -1 -8 30
-12 2 22 23 26 22 19 17 8 -6 7 13 53 99 75 76 139 241 192 203 183 177 64 44 112 106 56 37 97 38 72 74 71 69 90 81 66 76 51 48 97 121 104 100 94 91 64 39 13 25 73 106 99 60
20 37 44 31 18 3 4 -10 26 14 20 24 129 77 61 112 238 221 152 201 259 202 131 63 27 114 67 36 40 29 85 89 117 89 65 58 39 57 56 49 92 98 96 98 101 64 54 167 90 38 56 63 54 47
6 26 58 81 33 34 11 26 27 29 55 70 87 118 152 199 225 217 83 167 205 208 186 165 101 50 41 19 90 60 26 56 48 65 62 44 67 76 62 141 116 98 88 90 108 90 55 52 100 94 76 73 74 88
14 21 51 67 37 -2 5 44 24 14 79 86 61 93 132 247 307 207 32 131 177 113 104 80 62 73 87 114 115 74 74 87 78 88 98 90 115 133 190 178 158 127 101 95 94 94 94 101 96 87 50 62 86 105
-3 19 11 42 111 62 39 19 92 154 93 136 176 170 25 102 66 123 73 36 41 34 46 55 65 97 34 104 83 100 64 47 48 77 136 143 180 206 192 172 170 149 120 106 98 113 120 124 109 115 97 69 91 114
11 18 49 36 64 57 112 90 95 124 147 135 201 113 53 57 88 92 44 39 35 12 -12 45 64 55 40 43 106 10 62 41 145 280 212 162 169 122 152 145 135 118 106 90 86 104 108 104 117 105 81 61 95 126
38 40 38 46 18 7 60 121 82 102 59 79 101 99 111 28 72 51 41 35 41 35 34 33 46 48 29 41 22 10 44 49 129 90 121 144 178 197 181 151 129 105 87 90 102 120 134 143 130 107 98 86 90 155
36 62 39 50 65 76 95 116 107 28 183 162 153 131 97 84 31 20 -8 -9 8 40 35 21 21 91 142 124 109 83 93 121 78 108 155 171 134 131 118 100 95 96 93 95 102 107 122 135 143 131 125 121 114 181
49 80 121 76 32 30 61 72 110 192 120 112 107 83 73 46 16 27 27 52 68 87 95 95 59 61 147 94 91 77 99 71 63 59 86 107 121 113 103 101 103 89 103 134 147 147 160 161 171 183 189 166 165 206
45 64 86 115 42 -29 -1 38 39 74 75 63 44 31 45 89 108 100 92 96 59 95 94 70 61 65 95 60 79 39 -9 -15 44 34 101 105 106 110 116 128 122 132 138 151 150 162 174 168 177 198 200 185 186 181
48 54 53 53 68 76 84 69 66 17 8 6 11 61 102 126 122 111 89 63 75 96 78 56 19 15 14 5 -6 -8 -17 3 -37 24 104 93 118 116 115 123 124 119 116 122 120 129 135 142 137 133 140 151 146 128
33 50 63 -19 9 32 72 64 62 33 19 9 37 72 88 86 99 97 80 80 93 70 5 15 12 1 -4 -10 2 18 11 34 114 112 116 130 122 115 116 120 122 102 92 73 64 62 63 55 58 71 106 102 94 91
35 63 97 45 44 63 73 53 12 4 20 76 41 82 84 89 81 74 85 86 52 18 21 -3 1 6 1 -1 -3 21 108 122 115 93 82 80 84 93 85 98 75 62 57 60 64 67 71 73 91 75 62 58 64 65
44 85 66 43 69 75 54 41 25 6 37 76 89 92 78 68 66 72 61 57 72 77 33 7 -17 -13 -4 -9 -3 -6 -1 3 27 43 57 67 65 79 83 72 70 79 81 79 75 84 83 88 75 51 49 48 60 55
54 95 69 61 72 52 29 42 73 65 41 60 69 54 52 52 57 53 55 48 33 8 -37 -3 10 -31 -32 -28 -25 -7 14 30 45 63 74 78 62 71 88 83 83 71 74 81 87 75 71 77 78 77 71 65 62 71
107 122 111 106 121 74 63 65 63 89 61 43 55 61 38 40 45 63 60 73 17 59 37 -22 -27 -29 -28 -14 -3 11 23 24 44 50 85 103 97 95 96 92 90 92 103 101 99 99 101 95 87 80 84 91 91 92
139 134 127 103 74 94 73 100 62 61 59 43 43 61 68 100 124 126 130 122 90 31 -9 -14 -12 -5 2 14 21 34 48 66 84 95 106 103 118 121 122 110 105 114 116 113 107 105 105 103 95 88 84 79 77 75
137 142 129 90 48 66 86 157 103 81 51 52 85 88 86 108 88 79 -50 33 31 -10 -11 -1 10 24 40 42 53 69 68 79 102 111 116 119 119 112 108 106 98 96 97 101 94 91 91 81 82 74 68 66 65 67
119 105 83 54 39 43 89 62 71 94 77 70 69 72 64 38 -13 -46 -12 -13 -4 2 16 24 19 40 46 57 69 80 85 83 114 117 105 101 104 99 89 87 86 88 87 81 80 79 76 76 64 74 74 76 76 69
70 84 59 15 49 60 48 68 87 101 38 68 59 -6 -58 -39 -51 -32 -18 -4 5 8 7 7 11 27 52 65 74 85 68 76 110 124 104 88 85 74 72 71 75 78 62 66 69 70 72 68 67 67 65 60 55 47
47 65 55 47 79 72 74 58 37 40 38 12 -30 -60 -59 -30 -16 9 12 18 8 2 6 17 33 48 52 57 75 83 95 69 69 96 87 65 57 51 58 57 57 62 55 60 56 56 56 51 45 39 36 35 36 28
71 52 68 111 94 80 44 71 109 17 -33 -58 -44 -15 -19 2 20 19 30 14 27 12 18 23 23 39 68 80 84 79 69 64 75 90 73 59 54 52 51 51 55 67 53 46 42 36 36 34 32 30 35 35 33 27
70 105 67 113 86 112 85 80 11 -45 -51 -25 1 -8 7 13 30 36 2 2 27 33 41 52 68 79 85 86 87 91 100 94 90 82 80 75 66 61 64 67 66 62 53 39 33 30 30 33 38 42 39 35 40 38
114 152 141 174 153 131 81 15 -33 -35 -10 14 9 21 30 33 34 30 28 24 23 37 62 88 98 98 99 82 71 75 76 70 68 79 81 78 69 66 52 53 51 46 41 39 38 40 44 45 47 44 42 39 43 39
161 183 119 135 120 69 58 29 14 33 44 28 32 84 147 124 62 24 24 22 26 47 61 78 83 74 94 89 95 73 54 49 53 56 66 71 69 70 58 51 45 40 36 35 34 38 45 43 49 43 38 36 32 30
176 159 144 151 110 120 84 99 88 101 99 146 140 144 121 65 22 -8 -7 5 35 56 73 87 93 90 97 94 85 81 75 66 55 59 62 73 76 69 60 53 46 41 37 36 35 35 36 35 34 31 29 28 29 34
170 133 129 213 165 101 170 199 204 206 168 136 122 85 69 55 40 -0 -15 12 35 52 56 76 87 86 68 67 60 64 66 85 79 76 76 73 71 65 57 51 44 38 34 31 29 29 29 26 25 26 25 26 31 35
174 195 255 233 201 167 167 205 218 182 143 114 87 55 50 48 53 19 -1 -5 21 40 55 68 80 89 87 76 75 80 78 76 74 72 70 69 67 60 52 48 43 39 34 30 29 26 23 21 20 23 25 30 33 39

GFSWCAN_con_3kmhel_084.txt.gz
Helicity
-2 44 41 47 42 49 27 9 -1 -9 12 10 6 5 29 86 87 113 58 1 78 84 -5 50 87 104 92 48 27 10 59 159 109 50 44 44 41 55 49 16 32 31 67 96 88 116 86 43 92 129 150 160 163 212
48 47 51 56 36 10 2 -1 2 9 13 31 23 19 14 51 121 134 244 15 -20 85 24 25 28 102 98 67 4 29 41 83 28 42 29 52 41 54 91 89 2 43 39 57 54 40 64 98 145 171 182 185 217 234
58 60 68 40 -1 -8 7 6 4 5 17 9 5 19 30 53 88 161 261 171 137 90 -11 -33 8 14 10 63 -9 -57 49 35 52 54 32 28 34 47 41 54 35 89 13 31 -9 38 149 86 261 270 283 291 286 210
75 100 30 10 2 -0 4 20 31 29 19 13 16 23 39 75 81 144 263 248 224 168 79 -30 21 54 47 24 22 -12 4 5 -7 4 -6 9 27 51 49 39 32 21 40 14 22 95 -0 185 154 200 117 132 94 81
98 29 18 11 6 13 28 50 50 53 44 25 23 34 38 36 81 112 362 280 168 159 13 31 15 20 -2 41 32 15 6 29 4 16 -2 7 32 26 34 54 53 26 94 116 122 149 117 13 51 78 82 31 15 4
40 -5 -6 11 22 38 28 17 11 49 35 28 29 30 37 44 74 406 402 182 34 -8 101 46 56 24 19 3 15 25 -13 -0 7 28 28 28 33 43 43 53 127 115 83 174 73 123 46 14 39 45 19 6 20 29
18 4 -13 6 29 25 22 3 14 26 13 18 28 41 43 138 273 259 126 43 16 53 54 -58 31 26 22 8 48 16 14 26 51 45 41 35 54 79 18 25 78 182 116 112 106 110 66 10 -54 16 33 42 17 39
16 -7 10 15 22 8 12 6 1 4 21 29 39 47 81 214 223 231 150 48 171 116 52 -14 54 47 55 76 55 49 57 81 25 46 43 41 19 13 56 129 111 115 97 93 84 45 43 53 32 42 69 78 54 61
1 5 23 24 37 25 6 4 26 82 108 111 102 308 411 297 202 191 54 79 181 119 19 22 36 38 46 74 110 94 77 49 48 89 86 49 64 79 99 135 101 122 120 98 90 90 105 87 93 86 84 97 105 115
13 22 53 30 28 52 83 125 165 131 151 108 226 272 214 178 147 139 145 137 99 54 17 19 19 37 25 49 62 50 62 79 46 57 69 101 80 115 123 108 125 118 123 100 85 104 98 98 93 107 103 104 114 120
10 34 78 58 52 87 157 126 71 15 132 183 215 189 154 100 189 84 85 85 50 28 15 29 23 42 44 46 55 51 44 43 56 51 54 69 103 98 100 130 149 149 130 124 123 124 129 125 119 130 147 145 145 157
-19 24 16 11 -11 -26 -64 2 120 134 127 138 178 199 237 127 95 66 70 61 50 38 60 59 79 75 34 58 53 66 48 41 56 68 69 116 159 190 115 93 87 96 124 121 125 136 154 182 174 188 178 154 155 166
-23 9 -23 -9 -93 -82 69 132 140 133 204 240 164 132 178 136 93 58 46 48 44 76 60 91 75 56 7 9 29 28 33 74 58 80 95 108 125 90 75 104 107 108 121 128 140 157 175 186 253 249 227 222 227 247
35 -2 33 13 17 38 31 129 285 186 72 25 131 152 134 71 60 91 118 73 66 91 85 84 78 77 60 61 57 75 64 34 56 72 91 90 85 71 69 69 78 86 85 89 115 136 157 172 181 190 184 164 176 212
69 67 56 44 32 18 51 139 122 76 30 82 87 87 54 43 63 95 95 81 106 112 113 50 57 33 57 38 42 33 37 53 101 133 142 89 81 77 68 62 61 55 61 100 102 100 101 115 138 155 155 159 179 186
50 48 83 74 62 43 23 3 13 45 19 11 44 60 91 37 72 121 121 97 123 122 106 40 2 18 89 62 10 34 23 10 -24 139 101 84 88 91 105 112 110 102 87 69 57 61 65 69 78 89 91 104 112 124
141 58 39 57 72 81 64 25 30 26 3 54 65 115 82 71 41 56 97 120 165 133 67 58 21 5 11 -14 -16 40 22 123 121 137 135 132 104 82 60 43 33 33 39 45 51 54 57 50 44 61 91 63 59 59
80 50 41 80 106 63 68 18 7 -2 38 77 89 84 92 99 45 57 88 123 84 52 47 13 19 26 33 6 -0 71 104 127 113 87 66 56 52 56 52 58 59 65 75 78 72 64 53 47 76 70 46 24 23 31
78 50 59 100 88 53 48 27 12 10 31 60 70 78 74 83 84 89 90 69 71 68 17 11 11 13 26 20 35 30 22 24 33 36 41 47 53 58 64 73 93 107 112 104 104 110 111 123 102 70 46 35 56 53
68 42 32 62 72 20 7 -4 -12 -13 39 53 68 71 69 68 77 78 88 91 64 38 26 28 26 39 48 49 30 33 29 25 30 41 56 64 69 93 129 123 113 96 96 91 89 72 77 91 90 105 118 122 96 78
51 72 103 80 68 35 -0 4 5 3 48 54 34 43 42 23 34 31 47 61 58 43 47 13 13 25 35 20 19 28 40 39 89 87 92 96 97 107 116 120 122 129 136 117 106 118 131 114 101 95 97 105 106 94
77 106 99 102 70 52 21 46 23 42 48 38 39 33 28 36 47 63 41 52 83 101 28 1 8 7 21 37 43 46 57 74 95 108 118 95 131 143 143 135 134 136 137 136 132 128 118 116 92 79 77 83 97 99
108 132 124 92 40 32 27 79 62 51 30 24 28 53 62 73 81 82 59 72 34 -18 -6 14 29 43 54 50 55 61 60 76 92 100 109 123 124 118 126 128 119 110 108 113 116 117 103 72 100 83 63 53 60 62
133 110 94 56 27 5 49 49 49 44 34 49 39 45 70 69 66 55 45 -15 -8 8 26 44 44 56 54 59 67 73 76 84 102 111 102 114 140 132 116 111 109 118 123 101 95 92 90 84 57 80 78 78 82 71
109 91 66 9 13 -3 19 36 50 37 37 37 55 60 56 56 38 18 -13 6 27 40 38 39 38 48 86 92 78 84 77 89 126 149 121 111 117 91 94 95 94 82 62 60 70 75 80 72 67 65 62 70 74 59
65 66 53 28 27 18 20 38 22 22 68 64 45 58 32 2 -5 -16 -4 42 50 56 47 47 67 82 90 83 104 114 106 97 109 164 136 103 110 111 110 91 83 113 77 83 76 72 71 57 68 51 47 47 47 38
24 35 43 90 78 64 72 88 89 85 60 18 -25 -16 -6 -5 -10 -2 76 78 81 64 56 57 56 80 110 113 118 114 114 128 162 164 116 102 100 103 119 135 140 125 80 71 68 68 62 54 48 39 40 45 50 53
13 64 53 92 103 138 111 112 84 71 49 42 23 29 19 10 17 54 99 99 99 87 89 99 108 111 118 120 117 121 125 122 113 98 90 90 74 78 84 85 84 98 82 69 80 65 65 54 47 45 42 50 60 60
22 51 94 175 131 117 130 125 73 86 136 78 33 36 26 43 80 131 102 83 68 69 87 100 107 106 119 118 118 117 113 109 125 141 119 108 99 115 74 68 67 61 53 67 51 51 64 65 67 58 71 58 55 57
67 129 116 139 125 95 119 135 91 96 109 78 75 110 172 201 167 97 84 63 62 77 84 89 91 103 113 119 132 129 116 109 104 116 107 124 135 105 78 70 64 66 44 45 50 59 48 38 43 58 44 26 30 35
107 114 126 127 120 124 134 145 169 130 113 112 98 146 161 174 167 169 104 76 84 84 89 105 119 112 114 111 124 121 145 111 94 91 88 93 84 90 94 72 60 48 48 47 45 39 47 41 32 31 35 38 41 36
103 78 79 114 122 116 181 157 165 110 113 147 183 167 169 171 158 78 44 45 56 78 95 99 111 136 133 132 138 151 152 117 98 85 80 78 94 80 70 59 51 45 47 40 37 39 38 38 37 37 40 41 50 57
96 90 93 149 154 121 123 163 163 166 192 210 203 180 169 146 133 65 25 65 77 93 135 165 164 149 138 138 141 135 132 119 114 102 96 96 88 68 47 54 43 44 37 35 35 40 42 43 46 48 50 53 55 63

GFSWCAN_con_3kmhel_090.txt.gz
Helicity
29 27 18 9 4 -17 -37 36 43 50 32 22 16 8 17 31 48 87 87 131 159 99 45 35 71 68 81 58 50 98 66 43 32 70 71 38 34 39 23 36 5 8 38 106 123 92 49 -9 41 103 205 377 353 294
37 28 20 12 -6 -17 -37 52 62 44 16 24 15 13 13 30 54 77 114 124 95 114 20 44 14 9 22 28 52 61 53 26 18 21 88 65 48 44 18 -0 48 12 143 94 70 80 111 132 176 333 331 363 318 277
36 28 23 11 3 18 65 87 66 -0 -3 4 11 6 6 16 33 67 168 142 180 139 6 -37 -40 20 32 44 92 82 13 25 22 43 48 51 39 36 25 -12 -53 -19 33 56 75 127 172 237 280 358 384 317 253 274
30 25 20 21 42 77 79 62 18 20 11 11 18 20 24 7 40 49 193 220 216 179 120 -5 5 22 18 103 71 68 27 -6 10 29 5 21 28 -23 -13 -21 -64 22 3 79 195 227 229 295 243 221 244 296 201 138
36 29 22 44 72 67 53 6 20 31 33 30 29 39 32 17 17 63 132 245 226 201 50 45 15 -6 53 31 -0 38 13 -21 23 27 5 5 7 -17 -19 -1 53 36 51 -35 39 232 187 197 226 139 158 171 238 111
52 28 48 46 37 41 7 -1 18 23 35 36 46 44 38 15 21 196 185 179 246 403 158 84 36 95 49 83 86 53 26 35 19 -10 -0 -3 -7 -19 -10 80 92 48 44 146 80 78 61 23 46 52 -7 4 21 39
31 46 56 51 54 22 5 15 29 47 39 31 37 48 25 40 160 127 110 76 133 188 165 86 40 13 33 124 106 88 89 53 18 2 -9 -19 -9 -37 1 45 69 69 93 134 172 58 103 86 19 69 56 47 41 44
62 67 67 69 20 7 27 29 14 6 16 -1 15 31 10 109 188 218 138 64 202 180 74 60 65 54 80 117 96 73 67 57 39 16 10 -1 22 53 33 59 55 68 57 93 101 120 91 85 88 101 96 66 55 43
73 88 83 44 50 50 26 12 17 11 22 16 53 86 186 233 196 132 49 98 133 131 82 30 22 -36 63 66 70 71 51 38 32 15 21 42 59 67 77 72 72 53 46 49 53 92 101 111 101 94 93 91 76 78
100 66 80 30 22 4 7 21 28 26 87 169 269 213 186 224 133 136 136 68 141 128 94 21 35 -33 20 96 46 42 49 27 -14 10 65 73 101 148 129 98 91 52 35 47 51 96 97 81 96 86 70 84 97 109
39 55 16 9 12 26 39 61 119 118 183 212 250 216 157 142 172 155 132 117 89 43 2 -4 8 74 26 74 57 55 23 5 -2 29 58 79 103 112 109 104 75 51 49 65 69 76 85 87 72 59 67 75 69 80
60 12 66 92 86 88 49 24 69 109 155 108 171 209 163 122 188 74 78 64 20 8 13 25 68 63 23 100 45 56 22 25 3 73 121 97 102 104 81 72 62 58 72 94 94 86 107 117 101 93 86 89 100 114
-24 42 92 47 47 71 58 25 57 -7 95 239 193 180 152 136 31 -13 5 -9 -19 40 43 53 50 52 56 53 78 66 38 63 73 72 90 55 76 69 45 35 56 68 69 75 93 90 94 114 127 103 98 99 111 134
-23 24 49 112 105 102 113 75 152 231 239 172 120 104 50 44 26 29 50 41 53 67 68 76 85 54 57 74 63 54 57 70 63 50 34 42 60 53 53 57 70 71 72 80 79 83 90 93 105 115 109 97 107 111
13 15 69 215 196 137 179 97 220 205 147 157 123 60 43 59 79 89 106 126 125 121 134 145 107 61 81 53 66 38 36 34 30 26 64 82 64 67 66 51 54 62 74 75 56 53 51 57 62 71 69 69 69 71
62 48 101 143 212 254 172 113 64 79 50 66 37 54 75 92 134 167 166 156 137 132 148 118 82 73 79 65 53 39 26 23 34 55 78 94 102 100 96 87 60 42 40 34 32 26 27 35 33 33 49 63 66 64
2 59 47 93 100 115 15 27 33 52 59 51 67 114 89 94 144 150 147 137 124 103 80 78 37 6 37 29 13 12 -5 41 116 109 76 63 58 40 36 45 50 52 45 36 32 35 28 25 37 57 84 54 51 42
37 64 47 58 67 50 64 23 24 61 51 126 77 111 110 106 124 143 156 146 71 51 45 29 21 15 4 -10 6 17 76 78 76 67 43 34 36 43 58 72 57 61 61 61 65 53 47 61 68 53 43 12 23 24
93 90 80 74 46 26 20 38 68 95 124 124 103 108 108 118 105 80 80 102 90 67 39 29 10 12 6 -2 21 29 41 49 57 39 42 36 53 67 78 92 101 107 114 112 108 103 103 105 94 63 42 24 70 62
84 100 100 75 44 35 35 54 71 88 106 87 67 54 56 56 70 79 128 124 85 44 19 20 27 43 5 -9 -5 9 17 42 68 77 76 65 73 90 82 86 89 93 116 125 117 100 118 125 117 117 134 139 126 106
131 166 142 97 89 46 27 39 79 93 84 72 49 55 58 72 62 69 68 78 21 20 34 49 31 39 37 44 34 36 30 34 23 32 37 60 57 106 123 129 133 110 123 137 149 161 155 123 102 98 107 102 104 113
121 98 106 102 63 50 27 35 42 62 79 61 45 47 42 49 52 54 49 43 37 85 55 14 27 41 58 60 60 55 59 112 108 104 114 123 131 143 152 139 156 165 175 159 134 130 119 102 110 91 83 62 78 84
103 95 81 57 38 40 36 40 59 80 63 40 53 26 40 41 37 46 32 50 93 83 5 15 7 34 65 47 69 73 89 135 134 130 147 161 166 161 188 184 158 176 161 121 106 101 93 94 107 88 76 62 53 69
116 83 50 42 28 43 53 44 48 56 59 41 24 53 53 43 35 26 19 46 21 -8 -13 16 46 74 70 83 98 87 100 132 147 126 100 143 148 139 144 162 156 142 101 93 98 91 76 84 95 101 90 81 65 76
58 98 40 57 61 40 34 46 41 38 38 45 58 69 60 46 27 30 -1 -39 -44 -26 7 17 27 37 80 87 92 98 65 109 147 176 133 111 136 175 185 178 163 125 89 134 110 102 86 93 103 87 78 80 80 75
62 81 49 47 59 25 22 31 27 31 68 63 58 68 62 41 45 31 -20 -25 -21 -17 -22 -0 25 62 63 74 104 109 102 110 141 149 124 140 154 160 174 184 149 116 100 95 110 103 92 78 76 76 64 54 63 69
39 46 73 72 72 58 53 66 75 52 43 24 46 56 59 39 36 46 41 35 26 13 -14 9 77 108 112 105 103 94 101 125 117 130 133 148 143 128 128 182 155 107 94 107 116 107 114 97 77 69 67 59 61 66
49 39 35 110 75 98 55 82 60 48 40 63 70 71 57 25 31 22 49 112 151 160 164 164 140 142 136 117 109 150 177 181 199 199 195 179 143 123 109 120 111 112 104 97 95 101 107 112 107 95 87 78 60 53
46 68 72 111 82 66 65 58 50 54 66 60 61 73 73 84 50 61 148 180 181 206 200 196 172 163 175 175 165 156 126 130 149 126 122 137 132 95 63 75 82 82 80 83 75 82 88 82 86 82 79 77 70 66
59 48 52 74 66 58 66 50 59 82 91 68 62 89 192 198 163 165 176 171 160 139 112 110 111 137 141 150 155 153 127 107 89 110 135 138 112 102 104 103 91 79 78 91 78 62 63 72 68 68 73 75 70 81
45 57 65 87 82 63 23 70 131 146 130 159 205 234 245 189 270 245 159 95 95 104 117 114 110 91 111 109 119 127 110 92 117 137 154 157 141 126 106 93 89 88 82 80 72 64 60 63 70 80 91 95 86 80
59 47 62 85 103 55 90 115 114 141 187 189 192 161 162 182 199 174 135 54 81 87 74 92 100 86 95 116 105 97 122 149 143 137 149 141 129 104 92 84 73 65 71 74 70 62 64 74 77 75 65 58 61 67
96 113 99 147 128 100 88 99 101 100 117 104 84 106 138 148 152 105 39 28 33 71 76 85 107 115 124 129 138 146 145 141 139 147 140 127 120 106 87 73 66 66 66 66 69 68 67 70 69 66 67 68 62 57

GFSWCAN_con_3kmhel_096.txt.gz
Helicity
46 38 47 35 39 32 24 21 21 10 -20 -31 -37 -48 -38 -41 -18 93 66 115 128 47 26 19 7 13 26 29 36 44 39 47 54 47 36 32 42 73 60 46 27 2 13 14 21 24 15 15 3 61 85 179 142 155
50 40 48 39 38 36 29 27 25 3 -22 -33 -50 -69 -17 -23 -12 93 71 117 112 63 4 16 -8 -2 3 1 22 65 33 71 97 63 53 16 58 63 66 62 54 44 33 23 6 39 110 83 39 76 123 136 171 170
43 38 43 43 42 43 33 30 26 5 -10 13 5 -26 -16 14 -8 64 160 166 183 80 55 35 61 58 40 32 63 37 46 22 42 62 35 49 43 44 61 47 44 52 32 12 11 138 151 110 128 156 138 140 153 165
36 28 42 35 40 45 37 33 28 15 30 62 58 -24 -32 -6 10 44 226 225 169 73 -7 17 -16 10 16 100 85 73 47 26 0 47 80 75 41 29 43 36 28 22 24 17 -8 151 181 212 142 120 134 146 132 172
36 25 42 39 39 49 38 37 37 33 58 74 31 -24 -3 12 17 54 149 176 185 88 26 58 71 -3 48 67 104 70 51 54 49 20 81 60 45 32 33 31 48 26 40 34 33 34 72 134 148 148 171 130 95 131
33 28 39 46 48 51 44 34 24 53 71 50 -16 4 15 28 50 82 100 146 141 152 72 15 20 5 24 54 64 77 69 49 42 6 26 28 2 11 26 42 48 8 13 65 30 27 44 52 66 33 20 8 23 -1
25 29 40 43 61 48 48 32 22 70 66 32 42 18 16 36 95 97 76 24 156 185 102 54 47 55 70 67 74 57 99 97 78 24 10 23 19 17 37 53 56 48 16 42 49 43 19 32 17 36 0 -23 -25 -14
25 35 40 58 60 50 46 55 55 31 18 25 15 19 26 34 92 95 72 -5 127 214 102 96 79 68 56 63 67 74 65 76 58 57 32 1 16 30 10 32 55 78 21 30 18 38 26 36 44 38 34 25 24 17
34 42 55 53 56 41 42 41 32 40 39 22 16 29 46 74 138 175 101 128 158 119 111 106 102 62 91 106 107 98 61 88 63 53 48 30 33 25 41 33 58 65 43 33 5 28 28 58 68 71 76 84 64 57
46 41 62 52 30 37 33 44 57 51 12 7 48 85 125 102 138 355 282 179 99 109 142 90 102 119 102 91 84 84 67 58 30 54 61 55 64 112 128 116 88 73 63 70 58 72 92 86 101 94 83 70 74 78
55 64 58 48 47 70 102 87 41 -36 -11 47 47 98 128 259 265 182 173 116 145 121 58 72 85 79 74 77 61 36 26 36 32 30 42 16 42 117 139 122 95 76 65 66 79 86 87 95 93 98 103 96 82 93
74 66 63 79 106 122 21 88 110 105 95 86 172 260 259 135 105 104 190 207 115 88 50 82 127 119 76 25 27 14 7 -7 22 52 29 10 78 124 108 91 65 82 76 76 85 96 107 106 94 81 73 76 74 69
45 83 99 99 113 30 57 40 69 114 110 307 242 219 181 173 99 124 185 123 87 67 73 81 118 63 24 -23 -5 -4 -11 5 28 17 -8 31 97 108 84 62 59 64 68 81 104 103 103 115 126 119 103 97 91 99
100 131 75 8 46 42 -5 24 75 145 226 213 173 147 132 75 63 83 97 99 105 51 85 98 77 20 16 18 8 -11 15 12 -11 -10 3 96 114 100 92 71 69 68 77 74 67 74 80 78 82 89 89 81 92 98
71 81 96 60 15 65 63 154 149 213 207 187 154 111 66 76 105 121 115 134 148 79 116 86 59 31 42 34 45 13 6 -12 -19 -13 30 25 71 79 85 73 64 58 48 39 15 25 35 46 57 65 65 70 72 75
137 188 179 125 88 75 111 177 141 110 176 73 100 59 72 88 106 115 146 137 157 125 75 61 34 21 27 23 9 -6 -10 -12 19 3 48 66 51 43 47 53 42 27 30 32 33 36 51 69 78 74 86 96 80 69
141 159 98 153 146 105 114 113 121 88 74 84 64 93 80 109 74 109 124 137 199 102 46 49 19 12 30 22 1 20 -23 -29 21 38 30 38 28 24 28 35 36 37 48 55 62 73 79 76 83 100 116 78 70 56
168 108 70 145 231 202 161 112 53 50 17 77 39 103 98 121 112 130 161 167 118 86 48 30 27 33 -27 -26 -23 -39 -24 33 44 23 13 16 25 29 32 41 35 49 64 70 86 92 99 109 103 89 83 64 68 56
77 139 104 122 152 135 89 91 70 14 23 75 90 102 112 127 163 146 126 112 76 81 50 45 1 -4 1 -11 -29 -2 15 14 10 16 27 20 24 35 46 60 75 81 95 106 106 105 90 81 78 89 86 78 74 80
110 135 113 143 104 45 51 38 36 1 25 44 60 88 100 113 124 144 141 111 84 43 21 12 13 18 6 0 -22 -27 -8 32 69 78 64 46 43 68 77 77 76 88 110 117 123 123 121 116 102 96 90 88 109 113
150 140 115 76 60 44 41 69 66 47 85 79 90 83 73 98 91 95 95 81 27 24 5 18 20 55 92 37 36 37 34 26 30 44 57 68 51 78 73 71 98 114 123 132 141 132 119 107 95 101 104 97 93 97
90 48 57 36 24 44 52 92 65 86 75 87 85 71 67 72 71 62 59 30 19 29 16 34 81 40 51 24 27 22 30 46 47 85 91 95 83 88 83 89 114 126 144 147 142 126 100 95 113 116 105 89 88 92
67 65 54 39 47 69 87 124 91 74 46 53 68 58 48 42 44 51 25 22 28 68 88 100 88 74 85 59 70 53 42 71 71 70 75 88 93 94 107 104 120 155 167 142 119 117 98 88 108 112 102 92 84 75
89 66 49 49 51 70 84 85 75 65 48 60 41 31 43 27 50 37 18 49 108 139 117 78 88 99 106 81 72 60 58 81 97 93 78 108 122 110 107 124 131 136 132 134 130 117 99 85 79 89 88 90 80 72
75 89 42 59 56 64 83 86 74 47 47 42 28 25 30 42 36 32 15 65 84 53 53 78 92 82 107 93 91 87 53 71 94 101 66 77 116 129 136 139 141 129 112 149 121 111 95 83 85 88 88 84 73 65
54 76 56 47 65 53 56 69 57 36 48 30 29 43 40 42 49 16 24 -22 0 19 34 65 74 99 94 75 83 83 59 60 99 98 75 72 98 124 130 140 146 135 115 111 129 110 96 95 96 91 78 72 75 82
40 75 63 58 57 47 58 80 80 57 37 21 40 49 42 49 59 67 71 64 25 -3 34 72 93 110 92 98 102 91 92 81 79 96 104 118 112 100 121 146 152 140 130 124 113 104 96 99 98 88 74 69 67 78
24 67 43 90 69 75 46 66 54 44 44 63 66 58 33 21 44 67 95 124 116 172 182 189 161 130 122 114 103 132 152 136 140 135 137 142 132 133 141 154 151 148 129 110 100 91 90 91 91 86 81 73 70 77
49 62 62 99 82 62 49 43 41 49 59 54 49 60 56 58 58 72 143 182 181 226 208 197 169 168 188 165 133 111 108 106 121 121 115 102 100 101 117 123 128 120 105 98 81 79 76 72 71 71 69 70 68 80
72 66 43 61 37 32 50 47 53 64 75 70 54 63 91 101 133 153 192 171 170 166 160 166 158 158 147 145 134 115 81 63 76 95 108 101 100 120 131 133 126 108 91 92 82 69 71 77 78 77 80 77 78 82
70 57 28 44 36 46 34 79 76 74 83 92 113 106 101 124 178 232 220 220 251 254 232 196 161 125 129 110 100 105 78 61 75 89 111 139 151 149 143 123 102 92 87 90 84 80 78 76 75 74 72 65 58 64
70 50 12 24 41 33 73 72 68 85 127 135 158 152 174 174 185 199 221 217 232 246 208 179 154 92 74 76 67 65 82 109 115 122 140 140 141 126 117 105 92 87 95 89 83 80 78 80 74 69 62 54 53 55
53 54 46 24 31 37 53 58 80 78 117 113 128 130 136 140 127 137 162 177 180 182 157 122 105 96 87 88 91 114 140 140 138 144 149 145 138 123 104 90 80 84 91 85 79 75 77 76 70 67 62 61 59 61

GFSWCAN_con_3kmhel_102.txt.gz
Helicity
69 77 33 19 14 33 53 58 43 46 52 36 41 42 41 20 -7 47 20 71 23 -0 -19 31 22 4 39 27 27 46 8 20 33 28 29 26 38 45 41 50 39 41 25 28 52 79 84 60 24 38 33 48 54 52
43 22 6 29 34 26 44 62 74 44 52 33 43 36 26 14 -15 2 36 49 62 17 1 -2 18 55 23 19 27 21 47 47 48 28 30 15 21 36 64 48 53 47 91 56 45 49 17 38 45 46 58 61 63 45
46 66 64 66 45 24 40 44 35 54 52 40 38 45 15 16 2 -14 2 111 88 32 32 26 21 28 54 70 -8 23 25 40 50 52 52 34 32 28 54 56 49 41 54 45 6 35 61 47 45 52 49 61 53 55
35 32 49 54 41 32 32 43 40 46 45 44 48 52 29 3 15 -11 35 102 118 9 15 16 13 -6 3 16 43 -2 27 35 32 47 54 55 35 16 28 41 46 48 37 37 35 36 22 51 68 62 65 62 50 50
30 31 38 42 32 19 32 43 42 41 35 51 55 43 62 71 69 -11 69 117 113 46 16 22 39 28 -8 10 31 34 -2 28 38 33 43 45 22 8 10 19 54 47 29 29 46 56 72 58 64 62 54 51 50 33
36 25 33 32 33 21 17 48 47 38 51 54 63 66 70 130 13 105 71 76 104 140 53 20 40 29 25 12 41 57 19 17 26 28 20 25 21 14 10 23 38 37 32 37 39 56 81 66 32 27 26 22 27 36
43 -0 8 20 23 25 28 39 45 42 63 46 47 77 116 81 40 90 75 67 92 106 62 29 18 50 66 75 62 51 28 12 20 31 45 23 17 19 14 19 79 41 39 45 43 35 25 43 30 24 19 19 18 34
51 -7 16 14 26 24 28 45 43 59 68 55 57 84 74 69 82 73 96 49 125 99 63 33 23 15 34 52 43 45 38 15 13 34 44 39 36 15 6 54 37 46 50 60 63 79 81 54 41 33 27 17 20 27
60 55 38 17 15 26 32 43 41 69 59 43 61 135 45 58 101 89 76 40 26 44 75 58 45 28 42 72 63 49 47 51 72 41 39 57 55 35 49 38 40 42 27 18 29 38 27 17 28 40 37 28 36 46
67 62 63 17 25 27 21 25 44 61 13 31 100 102 106 88 62 150 143 97 74 57 65 40 51 35 32 37 57 57 43 53 51 26 46 51 46 71 73 83 98 105 93 34 22 21 21 36 43 50 57 63 65 61
59 57 40 28 25 25 24 57 53 47 67 108 114 148 110 24 158 124 97 83 96 96 85 97 80 82 49 58 58 44 46 51 37 34 31 12 -3 60 74 123 123 128 113 98 105 89 85 69 49 50 57 74 75 76
48 45 24 23 28 23 39 39 44 73 99 97 100 138 76 164 93 88 92 137 80 85 97 81 123 130 92 59 28 27 27 29 4 30 16 5 85 58 69 98 104 91 76 67 72 81 92 84 69 65 67 66 64 58
52 38 26 33 35 40 43 53 52 40 34 71 77 100 166 138 99 124 139 167 138 110 131 137 102 122 105 70 35 28 16 12 -7 11 44 51 57 58 62 61 77 83 84 81 84 86 78 72 61 49 45 41 40 55
38 34 39 34 37 59 53 54 30 20 63 65 126 134 115 90 139 117 138 164 170 130 99 88 98 70 78 47 -1 -6 -23 -17 27 70 49 32 70 64 67 79 85 85 84 88 89 88 79 71 76 76 79 75 85 104
34 37 39 62 70 65 29 -31 9 122 71 91 149 229 176 108 96 104 106 129 128 129 169 160 148 82 46 -3 -6 -13 1 24 15 5 -0 71 89 69 65 62 75 81 73 64 60 66 68 74 89 101 99 100 98 83
51 40 32 55 28 9 56 109 131 218 122 128 124 123 112 102 95 110 108 122 161 134 113 110 38 -10 1 -1 -12 6 12 15 -10 -1 70 83 72 63 65 57 60 69 76 81 80 89 96 96 104 116 107 105 95 88
26 9 94 45 68 109 141 237 199 103 165 88 163 99 152 107 98 136 166 157 155 91 93 38 5 15 9 -5 -3 -12 -7 -10 -10 89 92 48 46 46 56 72 75 79 85 89 97 105 116 116 113 121 148 126 106 105
33 87 207 218 248 321 364 271 143 123 105 109 91 86 96 179 164 171 130 153 144 70 72 52 29 8 3 -4 -10 -12 19 57 103 102 53 45 55 59 54 67 65 78 100 108 115 121 127 131 145 139 132 111 97 93
88 64 129 189 167 215 151 179 141 129 100 102 94 102 119 118 130 130 128 129 127 87 80 60 17 5 3 -8 -8 21 94 101 86 64 62 60 61 64 72 85 102 117 131 128 120 113 115 108 107 104 96 87 78 82
151 140 130 112 144 130 123 63 78 104 114 81 92 101 106 107 113 140 147 136 87 59 62 42 23 2 4 14 21 66 62 47 61 84 79 62 53 65 80 95 101 114 111 107 99 97 117 125 125 116 103 98 81 78
225 232 170 173 141 84 66 101 72 46 67 63 73 87 67 100 102 107 113 127 50 22 -12 3 -2 7 32 51 75 36 41 30 35 46 73 71 48 67 84 89 99 91 97 105 118 131 125 140 138 115 106 106 98 94
211 181 176 144 84 63 51 93 46 68 71 59 78 76 58 65 86 98 119 80 52 35 32 20 9 28 77 101 90 80 76 81 79 96 88 92 85 82 84 89 95 105 108 111 110 126 149 144 127 113 107 108 93 95
182 174 114 66 21 24 10 116 69 65 31 57 65 61 48 45 55 89 43 38 31 44 48 47 66 119 162 135 132 128 90 80 85 74 69 77 86 88 98 102 100 112 120 120 127 144 160 144 126 118 112 93 86 83
115 71 47 31 21 14 65 54 64 57 48 76 60 41 58 43 62 43 11 18 41 58 76 96 143 168 141 117 101 98 82 72 101 78 68 89 101 104 103 113 119 122 121 141 144 160 157 154 131 109 100 82 79 67
66 71 61 53 81 61 53 48 56 51 77 64 61 37 49 54 35 26 4 3 40 76 91 85 55 54 73 97 105 98 78 84 94 91 72 83 112 114 115 117 122 128 124 137 158 166 162 143 125 107 96 84 75 67
60 64 77 73 79 86 77 67 63 56 69 53 37 39 59 44 42 19 11 17 62 94 67 59 77 105 110 106 117 103 100 78 73 88 88 84 88 95 109 127 127 132 128 135 147 150 138 124 110 101 89 85 84 69
48 58 69 68 89 81 70 64 70 62 46 28 27 30 32 23 23 25 44 77 87 76 63 72 68 78 96 119 139 144 127 100 77 93 98 96 96 96 99 111 118 150 154 156 145 128 122 108 95 87 83 80 77 73
36 66 63 95 83 97 72 75 56 39 26 34 38 27 20 43 40 59 88 126 145 145 171 204 190 158 176 190 172 165 158 129 127 121 121 126 115 119 131 142 160 174 165 154 146 125 111 106 94 87 81 76 79 78
45 61 58 80 80 81 75 65 42 35 53 60 40 28 25 29 36 53 99 155 160 173 192 195 201 198 219 205 180 147 123 102 110 129 117 116 105 107 114 128 138 141 138 136 123 104 99 95 91 85 81 73 74 70
52 58 45 55 66 69 61 61 54 63 67 56 39 49 61 55 61 65 102 177 182 167 166 169 175 171 184 178 174 145 102 86 76 76 98 100 106 133 118 120 128 130 116 105 97 94 82 80 80 78 74 73 70 68
66 49 44 54 52 60 64 66 59 61 69 72 78 63 66 73 94 135 166 183 194 205 218 223 208 166 160 149 140 140 134 75 65 70 85 112 134 132 126 128 125 116 106 96 100 91 89 82 81 76 73 72 74 71
68 64 49 48 51 46 59 52 47 56 74 76 83 85 93 89 97 115 176 202 195 200 207 190 179 162 134 123 119 107 97 97 82 87 107 122 133 132 129 124 112 101 96 100 94 90 85 80 77 77 75 74 77 75
65 73 73 63 60 34 30 30 41 43 68 77 94 105 116 117 103 127 128 149 155 150 168 183 178 170 166 148 128 120 121 117 121 127 143 148 142 131 120 107 99 92 94 96 93 87 84 81 79 79 80 82 82 81

GFSWCAN_con_3kmhel_105.txt.gz
Helicity
65 46 57 57 40 19 27 36 43 32 34 55 66 75 67 61 56 3 16 0 1 -3 -26 -34 -12 -4 14 47 54 42 41 30 38 61 45 28 21 28 11 27 35 40 31 31 42 65 64 125 33 62 51 57 55 65
55 56 61 34 40 30 24 48 59 40 42 45 53 57 66 64 44 16 26 4 -2 -14 -15 -5 -24 24 16 31 38 47 37 48 37 43 39 21 20 24 29 25 62 22 50 37 56 50 26 28 44 40 32 50 46 45
45 76 30 27 43 16 18 57 62 55 47 45 41 53 55 50 41 13 34 47 48 33 42 15 -4 11 13 32 -18 36 48 44 48 47 41 34 42 35 60 47 44 36 55 38 7 39 56 41 37 45 37 42 42 36
43 30 22 11 31 40 37 42 28 30 31 49 39 46 26 41 31 37 22 29 70 3 9 -3 21 -8 16 13 25 -8 28 45 39 37 50 51 40 41 40 38 49 40 40 39 40 24 17 36 39 47 52 55 49 33
62 48 47 36 43 27 22 41 49 46 49 46 33 45 41 29 30 31 11 17 30 3 8 10 3 29 6 -3 6 19 -8 15 36 38 19 27 43 37 20 22 43 44 28 22 59 51 80 50 46 52 49 46 42 40
45 64 62 49 33 26 23 36 44 46 41 30 41 34 42 41 69 16 40 20 49 81 32 -9 20 21 21 16 35 40 13 -1 17 28 17 18 29 22 21 25 39 38 39 40 33 52 74 59 43 33 18 27 34 44
58 66 53 49 40 20 25 27 42 46 38 56 53 28 36 8 72 69 58 42 98 115 55 18 18 38 50 45 42 53 24 -13 0 24 15 28 20 19 6 22 45 35 38 38 34 23 25 44 32 20 19 28 17 31
66 65 48 45 55 28 12 23 40 46 47 54 61 30 57 136 58 68 59 63 112 99 65 45 19 10 11 29 42 34 33 22 -8 0 16 28 19 19 15 44 42 34 28 36 45 65 76 57 59 43 29 22 25 41
76 63 22 44 28 44 17 31 47 46 39 52 66 55 87 51 60 80 39 36 82 76 58 45 25 28 26 49 50 37 40 27 35 34 24 17 35 28 49 20 34 35 8 39 36 39 34 40 44 49 45 51 66 62
63 75 73 50 32 46 40 34 33 43 51 53 85 101 94 53 54 130 154 109 63 67 65 25 29 40 17 20 24 30 24 24 36 33 65 50 28 89 95 96 91 79 65 42 23 7 22 43 53 66 70 80 78 69
39 68 77 37 28 40 40 29 34 46 69 99 145 137 108 35 94 109 125 94 136 70 40 42 26 54 27 32 31 25 38 42 42 50 34 11 10 92 95 111 94 88 86 115 139 122 96 96 73 65 66 66 66 74
31 52 80 71 37 35 31 19 27 56 109 121 166 100 139 114 103 124 107 116 80 52 58 54 61 113 86 64 43 29 31 36 16 41 10 27 74 81 45 53 71 85 109 124 122 120 112 105 100 90 91 91 81 71
36 51 55 62 32 31 31 29 46 54 119 100 149 20 149 164 105 104 77 119 70 104 109 91 124 130 90 65 60 34 17 14 18 10 5 51 72 64 49 60 81 88 91 95 96 89 87 90 92 80 74 71 66 65
48 60 50 41 24 28 33 22 60 84 156 146 150 93 153 129 125 84 73 57 133 134 99 80 110 68 74 71 50 16 21 -2 19 41 28 18 68 78 66 57 67 79 78 82 87 95 96 91 96 95 76 61 65 73
50 65 38 34 27 27 39 45 58 89 84 152 69 90 84 117 115 147 165 154 127 86 99 106 97 61 66 36 17 7 -12 21 23 24 28 83 112 84 57 48 55 67 70 70 75 79 78 73 73 81 78 75 75 75
50 45 40 23 26 23 51 72 107 102 28 88 106 90 108 98 91 80 107 85 99 116 100 50 67 22 24 -3 -15 -6 17 32 -3 30 93 114 84 62 50 49 54 65 81 94 94 88 81 68 63 78 79 80 82 89
19 73 29 31 43 63 67 118 26 60 58 47 37 58 102 135 104 120 93 112 96 92 120 77 21 -4 -14 -8 3 0 23 6 51 81 88 71 53 46 46 52 59 65 71 73 73 74 75 77 84 91 113 125 108 128
42 41 33 38 54 123 143 74 69 63 48 46 41 71 122 167 110 118 118 106 74 74 91 79 38 5 3 -10 -11 11 54 94 101 120 91 68 59 54 59 77 72 72 83 96 115 123 121 112 105 118 126 142 117 93
66 63 34 -10 117 168 128 141 98 102 96 79 18 71 78 53 133 112 102 119 156 146 92 55 18 15 8 17 14 34 70 94 124 120 99 78 75 88 88 84 77 87 112 120 122 120 127 115 126 127 133 131 120 105
158 105 96 102 168 90 104 158 132 90 105 103 90 79 85 97 103 125 129 162 122 96 70 45 37 32 38 16 15 25 91 100 77 90 84 81 76 82 76 65 86 113 116 132 128 121 123 108 115 128 137 136 129 110
316 260 58 87 229 109 89 172 140 91 109 128 101 76 85 92 89 91 102 138 83 37 25 53 50 31 23 38 84 116 98 30 40 51 68 82 65 72 73 91 98 94 109 117 112 136 109 117 153 155 139 130 119 100
148 188 111 64 136 138 56 100 97 74 77 73 94 98 59 55 57 70 78 68 31 22 23 10 -3 -32 0 48 91 94 90 96 98 104 102 100 85 74 83 91 89 99 103 115 111 125 129 150 159 151 135 132 109 103
147 161 125 67 44 71 66 140 71 84 53 43 59 32 36 44 53 76 55 55 31 45 32 7 -13 30 70 113 118 114 109 102 108 113 98 102 86 82 90 89 89 106 118 129 127 144 157 191 175 148 144 117 109 98
157 117 98 65 35 3 58 47 64 44 52 58 42 22 36 48 70 69 17 21 38 37 35 39 72 95 107 119 129 131 110 115 132 132 121 110 102 96 88 99 108 121 123 161 150 163 170 171 182 137 142 120 105 97
32 52 33 7 18 8 5 30 46 46 28 59 57 32 45 62 49 28 -1 -11 14 42 62 79 96 93 100 154 155 157 140 128 140 150 121 96 111 105 102 105 117 131 130 149 156 152 160 159 146 138 124 110 97 87
38 48 44 32 40 54 37 35 25 19 56 59 51 37 68 59 45 4 14 11 34 58 81 92 108 119 115 101 118 140 161 153 152 157 134 106 94 95 99 103 109 124 124 136 145 144 149 154 138 121 105 102 123 94
49 56 47 61 71 53 48 49 56 69 60 39 38 40 47 28 15 11 35 120 89 91 113 117 102 84 103 141 190 190 194 197 178 159 144 136 123 115 95 99 115 176 150 146 149 146 147 148 130 112 100 95 93 89
33 66 61 72 70 77 73 76 58 45 34 49 53 44 37 50 34 54 83 111 166 189 222 205 199 171 175 172 173 180 197 191 186 166 148 134 116 108 115 129 154 178 163 157 165 160 151 136 130 116 107 97 96 92
41 58 65 90 83 70 66 57 36 35 57 104 55 42 30 39 38 58 107 160 151 160 179 207 230 212 212 214 213 203 186 169 174 201 183 162 125 100 97 112 123 132 139 155 162 153 140 117 110 110 104 89 84 81
45 59 49 62 70 61 48 73 48 53 75 76 40 32 33 37 44 57 77 107 109 121 144 154 152 153 170 180 204 212 196 175 169 151 162 143 122 110 99 112 121 128 123 128 132 132 103 85 97 93 92 86 84 86
58 51 46 55 55 62 62 60 55 60 68 71 89 57 49 44 62 103 165 216 194 161 167 178 194 195 206 204 199 202 211 166 156 147 128 117 101 101 110 120 121 120 123 124 117 113 113 98 98 93 85 87 86 87
62 62 43 47 58 50 55 64 57 50 49 52 57 51 55 54 81 92 152 222 180 210 217 211 223 234 215 211 195 194 192 153 138 123 114 103 105 110 116 117 117 117 123 118 110 115 104 99 94 91 88 86 95 97
57 67 63 57 54 46 53 53 52 39 43 49 64 87 110 120 94 120 149 215 252 192 217 215 201 195 191 186 174 166 168 167 167 145 138 126 121 121 117 119 121 123 118 121 115 103 97 92 90 94 91 96 99 101

GFSWCAN_con_3kmhel_111.txt.gz
Helicity
51 -5 14 30 34 27 25 39 38 39 46 52 53 56 66 80 83 76 67 61 57 38 25 31 34 31 28 37 24 12 47 35 67 58 56 46 18 18 11 10 13 24 49 37 25 13 30 162 39 54 30 53 56 50
43 12 -7 -2 15 32 35 37 39 44 42 47 45 55 61 74 88 70 85 75 41 30 6 3 3 4 2 6 18 23 42 40 27 36 46 61 81 70 46 -8 37 30 16 25 34 18 15 28 38 41 51 47 45 42
60 36 32 25 21 28 42 40 44 35 40 46 46 49 54 69 82 104 84 50 40 43 29 17 10 -5 12 21 27 25 24 49 36 25 33 35 82 82 63 33 3 5 2 7 0 23 43 21 29 50 49 31 17 43
104 144 61 35 42 31 36 37 39 46 43 40 41 48 51 55 68 68 50 34 40 40 42 40 7 5 29 12 12 24 7 21 26 57 60 51 61 38 43 26 19 36 32 12 24 34 36 38 38 36 52 72 86 36
62 22 17 13 37 32 36 32 32 41 46 38 42 41 35 51 59 62 37 14 31 48 28 25 26 8 13 -4 -4 17 22 18 35 42 59 67 65 50 34 37 34 44 30 17 45 47 50 43 41 47 56 52 66 102
70 39 32 45 40 35 35 31 32 44 44 37 38 39 36 38 43 63 63 35 15 19 30 33 23 1 11 1 0 9 24 27 12 23 24 35 43 33 47 44 12 29 20 9 18 43 72 42 27 25 30 39 61 77
44 30 23 46 49 44 30 6 8 44 46 36 34 38 40 50 61 61 77 66 27 34 23 28 27 28 37 21 40 38 24 25 16 1 13 17 39 35 36 57 60 41 30 36 32 21 20 8 20 28 42 80 110 93
80 88 69 57 41 40 46 30 22 40 40 28 40 39 59 75 38 -22 17 76 44 43 34 40 41 25 12 10 5 23 27 27 1 17 -1 -8 27 42 38 50 47 24 27 39 49 63 100 78 55 79 113 160 145 94
54 81 67 58 34 26 34 28 26 27 35 47 43 53 98 89 39 -8 -55 3 60 44 40 27 40 26 20 26 17 6 9 12 9 17 10 20 -12 -2 35 90 40 7 13 51 42 38 43 81 117 132 163 149 135 103
57 52 53 47 50 45 35 20 32 40 48 38 93 137 120 40 21 64 76 42 38 44 44 21 19 25 22 18 18 6 -5 -5 8 10 39 50 60 72 103 82 36 67 27 10 6 14 128 159 126 113 112 113 118 101
54 50 56 66 58 50 33 22 38 46 69 126 140 162 103 15 76 58 83 74 81 48 17 16 24 48 22 33 18 8 0 2 16 7 46 39 77 135 191 253 229 193 175 206 200 229 188 158 125 124 118 107 91 79
87 82 80 56 68 51 29 21 39 113 112 114 146 104 74 80 93 76 59 67 60 39 20 34 31 60 39 45 39 24 23 27 17 49 49 35 68 162 171 165 172 186 200 193 182 219 241 225 187 153 112 95 84 76
90 88 98 86 58 45 53 26 13 47 28 130 167 131 108 73 86 95 89 142 120 55 45 41 79 64 61 62 64 47 33 16 45 49 31 41 113 166 184 215 183 138 130 126 161 193 203 186 133 122 111 91 84 81
76 81 90 80 66 52 39 18 17 49 97 158 179 153 132 87 105 81 84 51 58 91 76 91 89 68 80 76 62 39 37 45 30 27 23 76 131 161 199 194 189 155 157 142 113 94 93 102 114 119 114 93 85 74
59 74 93 81 53 44 40 32 76 86 86 185 136 157 109 105 121 88 101 106 108 119 177 166 111 70 69 73 53 48 36 15 11 -1 26 93 204 257 214 148 111 93 81 67 51 63 74 81 95 100 85 86 89 86
42 74 90 81 61 53 67 70 114 95 95 124 121 143 147 93 93 114 138 84 128 149 145 92 75 75 60 63 56 37 35 2 -22 17 78 198 242 190 123 82 71 61 50 56 63 59 58 69 82 95 99 91 81 89
51 114 41 36 47 95 111 141 110 86 138 113 87 57 91 137 129 88 92 151 155 173 95 60 60 55 72 64 49 56 42 40 13 60 102 166 185 114 86 68 52 63 73 65 54 50 43 58 104 100 85 56 61 63
98 70 48 60 115 129 152 117 111 129 112 134 79 45 1 87 26 28 38 28 50 91 105 79 66 70 66 53 34 47 57 100 84 138 133 153 139 101 75 66 71 78 69 58 54 49 68 85 76 54 51 40 66 89
86 77 72 98 143 153 118 109 125 114 53 67 95 81 17 13 78 72 76 97 57 49 92 85 83 62 72 64 18 22 73 96 170 140 138 132 131 96 80 80 80 80 86 80 64 47 50 61 64 81 99 124 104 161
49 62 65 44 95 86 106 94 94 114 2 -40 -50 -67 -40 0 84 79 69 110 115 114 92 77 67 64 47 32 4 27 111 196 205 185 154 118 104 100 88 88 86 106 100 63 36 48 45 52 54 83 163 160 177 190
76 69 50 56 51 59 64 42 66 26 13 8 -18 10 -42 -38 64 66 44 87 101 103 94 88 68 50 57 41 85 131 157 156 117 121 135 130 93 87 75 58 111 101 69 57 65 49 55 97 194 203 207 200 193 189
130 107 112 37 -47 74 87 28 42 -11 2 8 39 50 6 28 41 64 64 72 84 90 62 62 52 26 48 54 56 60 62 62 93 151 169 140 107 85 67 106 110 79 73 65 94 97 99 185 201 206 209 184 168 156
110 97 61 24 14 11 -10 34 10 -1 21 -2 38 33 35 31 37 62 70 80 80 67 88 103 48 63 89 87 88 63 97 167 177 146 120 88 91 94 126 107 91 115 133 136 169 205 181 181 194 196 188 173 170 167
27 77 38 17 19 -41 -10 69 40 24 30 47 49 38 29 60 54 66 61 36 46 103 117 110 156 141 115 96 77 113 143 181 167 122 91 137 140 161 144 141 193 204 156 198 205 183 182 163 144 140 147 154 152 166
12 34 26 12 10 14 8 47 41 40 37 49 55 59 43 60 49 24 9 5 33 73 82 125 126 111 91 88 126 163 201 178 164 176 164 177 223 274 297 289 255 236 203 217 196 174 145 133 124 122 141 166 183 192
-75 -6 4 -10 18 7 -5 37 31 33 52 76 60 59 46 16 -11 -29 26 39 31 43 64 72 61 58 75 135 187 224 176 192 251 301 314 257 240 249 247 239 218 176 177 195 172 158 144 135 135 142 160 157 163 171
-74 -67 -11 36 70 74 45 62 85 31 10 -4 -4 -5 -6 -24 -46 -2 42 147 95 108 112 102 75 66 204 295 338 346 331 315 338 332 301 311 287 256 199 185 206 180 185 192 198 196 198 212 213 200 200 205 200 193
-97 -63 -82 17 76 126 16 49 31 20 19 51 -2 1 5 23 38 55 64 133 125 159 186 220 253 348 407 304 266 290 351 355 334 296 303 312 277 263 267 284 262 249 213 191 190 199 202 207 220 217 231 218 196 178
-28 22 64 81 54 34 42 59 23 23 64 113 108 83 69 81 80 77 116 187 130 157 189 242 297 328 318 274 249 246 251 252 256 232 215 203 194 189 168 180 182 173 170 176 165 155 168 167 169 171 162 162 143 148
40 38 33 45 40 21 26 45 24 39 79 75 72 75 90 95 121 138 170 203 117 158 185 204 209 212 207 206 227 294 296 239 174 130 167 165 144 144 161 168 156 134 111 111 116 124 142 145 142 145 138 132 154 154
51 62 54 44 26 26 35 45 68 107 116 101 95 61 58 67 123 150 172 210 102 120 130 149 163 163 172 195 209 218 224 211 185 189 199 196 179 164 150 139 123 133 139 132 134 147 148 158 162 166 179 176 172 163
50 31 29 32 46 31 45 47 40 41 31 47 63 49 37 67 82 108 179 219 73 71 104 146 169 188 190 202 187 162 163 162 169 171 188 192 188 171 157 144 132 122 124 136 147 136 149 153 156 168 160 152 149 156
52 54 42 40 52 27 32 35 46 45 49 58 76 68 87 64 56 89 160 288 249 211 201 210 216 220 221 212 208 216 222 209 217 208 191 164 139 133 126 114 111 122 141 143 136 142 158 158 151 146 157 161 148 142

GFSWCAN_con_3kmhel_114.txt.gz
Helicity
62 66 64 45 51 61 40 29 16 10 43 78 92 101 106 118 78 80 80 85 47 40 31 35 20 15 15 32 33 12 16 46 62 38 35 34 36 32 8 29 39 48 46 55 29 55 90 135 24 30 17 30 25 14
53 27 43 53 52 88 58 32 61 71 70 69 77 98 107 95 82 86 75 80 69 46 23 19 23 -7 9 9 23 13 16 27 32 47 54 40 53 59 66 36 44 33 31 26 39 7 8 25 49 41 23 13 22 30
55 53 45 32 20 34 56 65 50 48 55 59 78 92 98 95 96 84 72 66 64 68 63 52 18 7 -3 -5 16 15 6 23 35 25 35 52 54 51 66 34 32 8 6 13 3 7 16 12 21 43 33 23 42 66
85 78 33 2 -10 13 33 45 52 56 55 58 66 86 87 83 85 96 60 42 60 72 57 31 37 -1 -2 11 10 7 -1 11 22 40 32 57 61 39 27 20 22 15 20 8 22 17 26 24 29 32 66 83 82 94
86 97 60 21 4 19 31 35 38 34 43 43 48 70 69 73 77 77 59 45 43 44 31 29 62 -3 -11 -16 -13 -1 -3 1 23 41 49 62 67 65 37 18 13 5 11 13 26 20 25 20 21 35 61 86 85 80
60 73 89 46 21 20 38 44 46 43 45 42 43 45 65 66 74 92 91 67 38 30 51 42 28 0 0 -10 -3 -6 -7 -6 5 19 18 26 31 55 46 34 11 17 25 -16 8 23 39 25 18 21 59 63 73 91
236 188 78 42 19 26 28 33 43 59 61 51 45 52 61 68 84 91 76 58 35 35 51 45 20 5 8 19 23 32 29 14 12 8 6 27 47 50 50 36 36 30 29 44 39 54 34 3 11 43 111 107 107 105
84 46 46 57 34 41 42 33 42 59 59 53 46 57 80 76 65 88 92 74 41 71 64 46 21 25 11 15 10 8 25 28 14 14 -6 -11 -10 37 46 37 39 32 36 45 38 33 74 117 131 177 158 134 117 87
70 71 68 43 31 45 37 30 42 59 55 51 44 74 118 96 65 72 49 50 64 73 50 30 31 21 29 26 14 11 3 3 6 21 10 24 2 -10 -20 50 73 36 6 27 32 56 115 143 137 145 145 112 103 79
53 59 45 54 48 40 46 33 41 59 57 58 112 130 112 97 65 41 62 87 62 56 38 22 21 31 31 25 25 15 -2 -3 12 1 32 56 63 62 59 42 18 8 44 43 42 63 80 93 117 124 129 110 96 84
55 79 64 42 35 44 39 30 33 50 93 117 133 134 142 36 120 103 93 89 56 29 12 19 12 33 23 37 21 12 9 6 18 -1 32 31 56 74 137 187 175 176 126 108 61 73 95 121 124 114 97 87 85 84
50 79 72 68 61 50 36 39 76 113 85 110 125 143 127 131 122 103 100 80 22 9 20 31 14 30 26 31 37 22 24 29 1 31 36 21 53 137 214 208 197 176 187 196 161 192 165 127 97 99 93 95 95 93
52 63 80 65 51 32 29 44 31 56 64 120 165 161 146 114 107 127 137 102 24 19 -2 28 48 48 59 54 46 32 21 16 29 25 27 21 103 169 213 224 180 143 133 135 159 158 140 109 78 90 111 106 106 97
42 55 53 63 45 18 4 24 66 93 76 170 207 176 139 124 119 89 64 34 29 33 50 69 93 57 44 65 47 39 12 31 9 5 11 51 149 197 194 170 170 76 89 98 92 78 79 84 90 95 110 105 106 88
80 69 70 60 39 42 28 89 93 96 146 247 217 222 171 149 108 88 3 46 44 65 128 125 87 58 67 56 35 28 21 5 8 -12 -9 88 190 231 188 121 108 76 65 56 42 64 76 80 87 86 74 84 91 81
91 116 134 60 57 77 110 135 116 100 140 219 176 188 179 165 95 80 73 63 75 125 167 113 54 45 50 49 35 18 23 3 5 -15 16 140 169 162 146 97 70 56 45 46 55 70 71 68 66 59 69 83 74 85
157 178 52 69 102 112 111 116 111 124 140 179 190 79 169 153 124 68 104 70 70 117 91 55 54 32 70 47 38 36 43 23 14 11 34 78 151 145 113 91 74 64 63 68 78 70 54 53 72 84 77 56 60 65
137 121 93 86 147 189 176 119 132 127 116 120 92 76 194 118 128 82 81 118 144 115 97 52 56 70 42 25 15 29 63 74 36 58 78 82 145 137 111 96 72 73 84 92 85 74 80 86 73 47 57 75 87 66
102 107 85 127 156 159 101 109 150 95 74 -10 29 19 35 91 105 125 87 106 79 109 110 104 63 30 42 40 28 40 72 74 51 84 65 102 139 127 102 101 95 99 109 102 98 84 78 70 60 64 53 91 104 89
46 65 44 77 122 108 88 88 93 125 56 16 -11 -39 -35 31 21 135 123 60 64 59 61 72 35 45 37 38 41 36 75 94 126 92 83 105 128 133 109 107 94 102 110 100 92 104 94 66 39 53 87 135 168 144
105 77 36 97 90 77 75 63 100 60 64 27 7 -18 -65 34 9 126 218 144 87 110 76 53 38 31 22 24 44 92 72 112 64 58 99 140 111 137 130 114 123 116 121 118 111 81 75 71 66 127 156 150 149 150
153 99 141 113 58 48 52 40 80 55 49 34 48 48 -15 18 0 77 74 150 88 80 67 43 60 56 57 40 35 20 48 96 114 126 177 228 191 153 117 105 115 102 111 101 99 96 100 119 167 184 178 149 160 157
137 135 108 44 5 68 75 28 45 23 26 12 29 56 48 3 12 44 37 31 53 77 53 57 50 51 60 50 44 52 72 101 73 97 143 165 166 136 126 107 107 122 101 84 104 142 164 196 193 180 169 168 174 169
106 54 15 6 15 42 29 41 32 15 14 34 37 31 9 16 40 24 17 32 52 89 123 147 155 174 143 91 52 73 84 100 106 111 140 165 141 115 104 111 107 91 110 166 189 208 212 192 183 175 163 171 174 168
20 33 1 -16 -22 -8 1 33 51 44 47 48 25 35 18 49 26 22 22 37 73 99 127 143 157 114 74 79 128 152 130 148 149 124 123 152 187 222 234 220 211 182 199 251 224 205 169 169 164 161 151 156 150 169
36 30 8 17 27 11 12 30 62 58 49 49 60 62 59 55 51 34 46 80 68 77 68 56 51 66 70 115 147 162 118 137 192 207 194 166 191 213 222 231 235 216 181 169 196 178 168 160 163 157 148 142 147 171
7 18 -6 17 21 18 24 37 48 72 55 37 40 67 45 48 29 44 56 77 63 59 67 57 47 68 117 147 171 198 207 217 221 217 208 233 235 198 190 197 175 156 163 199 205 205 207 203 199 192 205 204 194 196
4 14 5 4 28 64 42 65 57 41 49 66 30 -4 -15 3 3 43 49 80 83 101 138 150 140 138 165 173 184 234 274 289 310 290 319 362 305 235 219 226 223 228 212 201 199 205 205 200 200 204 205 200 199 186
-60 -88 -66 -18 33 59 62 61 18 17 45 41 21 24 13 36 47 67 67 104 84 103 120 140 178 244 297 291 270 250 233 216 231 204 188 181 183 181 190 202 206 194 179 181 181 173 172 163 165 164 170 187 179 175
65 -3 8 39 53 41 34 30 9 31 37 37 46 64 70 62 102 123 122 120 97 110 120 154 184 207 211 212 217 232 213 152 119 138 174 159 120 124 148 160 155 145 148 158 160 159 165 161 157 170 172 185 197 191
57 52 34 36 24 17 17 42 56 52 51 82 101 60 52 52 94 153 166 137 73 96 112 130 154 162 154 151 164 193 199 186 153 144 146 160 161 150 139 137 128 121 118 122 126 137 151 176 186 193 198 196 182 166
64 49 58 57 55 56 49 44 43 48 57 58 70 96 117 105 88 106 156 149 82 102 115 132 139 131 137 148 146 138 136 134 157 159 175 168 158 142 138 134 132 134 138 130 136 145 157 172 177 180 175 175 158 148
49 48 40 42 53 34 23 23 41 41 63 69 66 62 72 55 47 78 122 169 143 142 153 154 161 167 168 164 161 169 174 159 161 166 170 159 149 141 131 122 119 119 134 142 142 150 163 168 165 162 152 142 137 135

GFSWCAN_con_3kmhel_117.txt.gz
Helicity
74 87 56 21 21 10 26 45 92 81 57 76 67 88 116 126 124 130 120 131 71 56 74 52 26 17 17 24 28 12 32 27 44 37 13 26 35 32 40 18 48 61 78 85 86 101 98 68 14 9 4 1 6 3
40 34 66 56 53 50 27 64 40 51 73 61 79 115 133 108 121 121 105 111 91 73 41 38 35 15 5 0 18 12 32 44 44 50 45 57 58 46 38 44 38 33 29 33 43 22 21 45 58 29 -4 -3 -9 4
33 80 84 79 72 66 56 63 57 52 53 58 103 116 116 118 121 84 101 97 100 90 86 71 54 54 0 -22 -13 15 4 27 48 29 41 55 76 55 43 29 24 14 13 25 13 12 11 9 18 21 26 22 37 62
68 58 79 112 96 77 55 48 68 49 45 68 78 115 126 133 116 103 96 93 91 101 63 46 58 28 3 4 -15 -15 -5 15 27 33 55 66 69 39 45 23 19 15 22 9 22 17 14 13 13 29 39 41 57 56
69 72 68 71 78 53 65 57 56 43 51 83 110 108 117 120 119 121 111 101 94 72 47 45 61 31 8 -11 -16 -10 -2 3 14 30 50 68 70 63 49 37 23 7 10 6 3 5 18 9 7 27 53 39 26 47
62 49 21 16 42 48 38 27 65 71 52 66 76 91 106 98 118 146 126 104 98 76 93 50 48 22 6 -3 -2 1 7 4 -2 10 20 27 29 60 66 50 30 24 18 3 1 18 22 19 20 24 41 39 44 55
102 92 68 28 15 30 22 27 47 52 59 59 77 90 94 109 133 126 83 91 77 71 82 53 53 37 22 22 27 30 28 24 20 11 8 22 34 49 59 47 37 28 36 61 63 78 50 18 10 57 79 72 71 80
143 160 123 69 47 33 50 34 38 46 43 53 74 84 84 101 124 104 105 103 84 88 76 63 44 46 20 22 17 12 18 28 29 23 14 16 15 32 44 43 53 47 42 49 31 26 48 97 135 112 95 72 70 64
96 107 88 52 52 50 44 49 57 58 57 59 63 104 151 135 122 133 101 97 108 96 79 61 46 34 28 24 17 12 12 21 13 16 14 28 24 25 30 40 61 54 32 36 60 74 82 102 106 91 89 67 71 58
185 112 62 57 54 46 36 50 64 77 86 67 145 185 166 122 111 80 119 109 99 80 71 53 63 40 35 40 35 31 17 23 31 11 31 46 43 50 42 48 47 32 51 95 90 57 71 63 68 72 60 54 54 54
81 99 59 57 60 43 60 49 62 86 110 154 183 159 141 98 144 126 101 88 73 45 51 55 24 44 26 38 24 21 27 25 34 16 31 26 22 48 74 105 66 55 50 27 55 50 37 72 88 89 59 57 69 81
79 38 33 52 62 44 56 54 96 117 101 137 136 139 171 148 125 94 77 60 42 56 58 52 25 35 31 34 39 29 37 40 20 30 35 17 17 59 95 105 115 137 118 96 97 128 113 85 76 71 68 81 91 102
41 45 51 51 37 26 24 44 66 44 75 149 197 194 162 116 109 78 36 17 55 75 23 36 62 52 41 48 52 37 43 16 33 41 7 14 61 82 114 130 126 125 129 139 141 137 126 97 65 69 85 88 110 115
63 67 62 42 23 28 41 59 53 77 68 207 203 166 145 112 84 32 27 45 30 43 25 33 85 49 41 69 48 51 22 35 21 17 -13 28 113 144 122 110 131 86 81 87 102 98 85 79 79 73 84 88 104 102
90 79 69 45 34 34 66 93 87 85 175 202 188 149 126 109 70 48 36 69 74 17 86 88 72 47 68 63 44 48 36 10 7 -2 -6 30 132 164 136 103 90 63 52 56 49 57 68 80 91 91 66 84 103 115
118 156 156 55 56 88 113 141 144 87 184 184 138 143 158 134 69 55 51 71 64 58 98 76 57 50 45 43 39 24 24 9 19 24 6 75 128 128 122 85 60 46 40 41 46 66 80 92 97 91 83 74 81 93
208 236 70 76 84 93 127 128 149 126 135 162 170 114 133 128 120 76 82 71 83 83 93 55 59 38 50 46 36 39 49 36 25 25 4 -5 101 132 121 95 67 55 55 69 77 86 92 110 123 122 93 50 64 70
208 126 97 129 181 171 144 141 132 138 110 182 166 137 92 62 113 80 101 100 91 70 67 81 59 77 41 14 25 18 46 46 57 27 16 33 100 137 120 98 72 73 86 86 99 116 131 130 120 89 91 94 94 75
138 117 107 117 131 131 94 110 125 111 117 174 122 92 137 154 69 67 85 102 105 107 88 76 57 18 36 30 24 34 37 58 59 31 35 60 103 139 137 134 122 107 108 116 130 125 117 102 98 105 108 115 104 103
94 79 93 160 147 130 93 70 102 103 76 58 65 88 118 89 155 194 136 78 61 59 112 129 93 64 29 27 31 37 43 94 118 63 49 77 103 154 139 138 112 114 136 138 136 141 139 122 103 112 117 117 132 121
126 92 109 158 136 108 72 43 88 81 75 -13 -13 17 48 51 81 89 148 104 90 36 12 46 47 42 15 7 1 30 84 118 95 66 39 73 108 139 148 156 170 163 151 146 138 127 129 116 119 133 142 145 138 143
151 144 175 153 106 78 52 38 78 62 65 62 -53 -86 -52 24 43 34 22 89 83 103 108 77 57 69 53 46 39 34 29 77 60 60 109 142 173 165 156 168 183 147 126 123 135 128 108 109 131 151 180 167 173 153
124 173 151 110 67 44 40 22 50 46 62 53 84 63 -18 -59 -16 73 53 45 54 113 83 81 86 77 73 70 71 76 70 69 44 62 79 87 141 172 184 172 162 149 125 107 125 132 130 151 180 189 189 195 191 173
137 111 64 42 43 88 57 54 67 51 58 54 60 83 67 60 74 56 55 72 76 60 73 79 116 137 123 89 97 85 76 60 55 68 80 107 130 137 145 145 129 114 111 129 136 153 174 198 207 200 192 190 174 166
42 56 14 -5 6 43 60 54 40 41 42 38 49 55 21 55 40 21 19 27 20 35 65 88 112 104 90 119 117 120 97 73 52 31 50 93 153 187 187 160 133 107 130 152 159 173 198 202 193 187 168 157 148 156
-3 13 7 11 17 17 12 6 15 28 51 32 22 30 44 12 -12 -9 7 32 43 30 49 66 74 84 83 74 51 61 53 81 121 107 92 93 123 158 172 175 168 156 143 156 209 190 175 167 166 159 163 156 156 178
18 26 0 3 14 30 44 57 60 71 55 28 38 93 67 31 19 40 54 49 49 50 56 74 72 59 32 60 104 132 141 138 113 126 138 162 162 153 161 166 175 150 151 152 155 156 153 147 162 171 181 192 187 175
27 16 48 35 55 55 26 41 33 27 41 53 58 56 36 44 39 48 38 50 53 55 87 126 126 100 103 119 127 148 165 160 178 182 215 257 222 198 198 201 194 193 174 161 156 163 164 165 172 183 190 195 196 191
-11 -10 -3 21 39 47 58 79 66 64 71 84 80 87 77 87 64 66 49 52 40 45 52 64 95 131 175 197 201 193 173 148 145 151 161 166 172 188 201 203 194 177 165 172 177 163 166 168 164 164 170 190 199 208
66 41 40 42 17 -10 38 90 74 103 108 92 90 81 78 70 78 69 48 50 38 17 34 70 106 128 151 169 177 205 207 175 145 121 132 128 113 127 138 155 154 149 154 155 160 160 162 155 150 162 188 214 211 209
37 138 173 161 130 76 64 52 43 28 23 35 51 26 28 14 47 101 103 87 49 66 86 103 126 139 153 153 147 148 154 157 137 135 137 157 153 135 123 116 118 122 129 131 136 137 143 163 174 193 203 208 198 177
58 55 37 37 24 36 38 42 32 16 8 21 48 63 77 65 59 84 131 103 76 94 100 105 112 120 120 119 123 131 138 124 145 139 145 137 125 110 112 113 111 117 126 132 133 144 168 176 175 176 168 158 145 146
44 49 37 36 52 48 43 26 25 19 34 42 50 51 53 47 31 53 93 127 105 95 99 111 122 130 136 135 130 136 147 143 155 165 169 146 127 116 103 96 103 110 125 131 132 141 156 161 153 143 139 141 138 129

GFSWCAN_con_3kmhel_120.txt.gz
Helicity
25 37 43 24 59 65 57 68 49 62 44 45 60 67 68 54 89 84 137 186 100 95 108 82 51 33 33 30 32 13 34 23 56 70 78 59 52 56 45 17 25 47 53 70 91 131 106 100 41 32 15 33 23 4
42 60 62 42 64 66 61 56 86 83 58 42 62 74 58 76 78 91 118 158 156 107 70 74 44 30 30 4 20 28 37 36 37 63 51 57 52 68 57 30 24 38 24 33 38 41 39 64 68 50 25 18 9 7
59 95 60 50 55 45 32 20 54 119 102 49 63 75 79 96 89 68 103 124 132 131 120 84 75 70 15 6 -1 35 22 28 44 28 57 54 77 67 80 45 17 13 7 33 11 7 21 33 47 45 34 26 29 37
86 128 106 92 63 45 33 27 37 86 89 54 93 100 90 84 86 93 109 136 118 137 88 99 75 47 25 3 -6 -6 3 14 26 38 66 72 82 56 66 41 43 13 19 17 37 29 32 34 29 34 45 43 60 57
45 49 113 84 97 78 62 57 74 70 78 78 89 91 112 99 96 143 134 142 124 93 80 104 82 63 43 9 -1 -9 -11 -3 11 34 52 73 71 70 53 46 51 26 17 8 1 10 19 19 15 28 36 28 30 52
80 128 87 125 110 98 85 68 62 68 118 76 87 116 118 124 137 147 138 127 151 113 122 106 82 57 29 12 2 -0 -2 4 -2 8 17 28 29 56 69 61 44 24 29 16 16 33 41 46 38 27 43 33 43 51
82 92 108 108 97 99 83 48 31 48 73 88 117 107 130 133 120 114 82 108 131 129 105 107 74 66 46 29 24 29 28 20 19 11 9 21 31 39 43 41 42 39 42 60 83 102 80 22 2 30 67 57 56 53
76 73 77 113 105 87 89 74 54 50 55 85 109 127 126 129 128 124 132 119 155 122 119 79 55 55 53 17 15 18 20 21 23 25 22 16 20 28 16 31 38 50 62 57 51 35 41 69 95 66 58 52 53 44
87 48 23 22 49 52 54 31 41 92 76 69 84 125 169 180 144 117 75 120 142 115 109 78 35 28 46 21 19 14 10 20 10 24 24 33 26 22 29 64 53 36 33 61 73 72 67 65 54 48 52 52 47 36
130 107 68 53 39 18 41 51 49 69 57 78 169 206 179 149 109 73 134 138 138 116 108 75 76 46 47 43 36 26 21 31 33 24 33 45 45 63 68 59 62 49 74 80 90 53 54 48 54 49 32 32 36 38
161 128 94 80 68 51 49 66 75 82 89 155 208 196 174 107 128 123 120 123 100 80 60 64 64 57 49 53 36 20 29 27 38 24 40 31 26 39 74 106 102 102 71 36 58 59 49 69 91 88 48 35 41 43
79 97 87 71 56 54 69 59 81 148 159 143 124 155 214 158 122 105 114 103 83 82 70 59 55 73 61 45 38 20 36 33 34 34 43 26 20 42 69 77 97 90 75 49 67 75 80 84 90 76 61 51 42 53
119 94 81 59 57 62 64 59 72 63 123 173 207 190 146 123 128 88 79 94 81 83 57 99 78 61 57 53 43 30 43 25 37 41 24 22 30 47 73 100 109 114 121 110 111 106 107 102 83 66 73 57 72 82
95 81 65 57 65 63 61 48 42 97 174 214 203 165 132 123 109 80 100 119 66 67 45 75 131 63 48 53 30 46 25 43 42 35 17 13 59 69 89 83 112 94 91 90 83 81 96 93 77 76 81 80 94 84
73 72 57 48 47 52 58 70 64 104 146 201 178 172 137 104 73 63 98 111 77 41 59 111 104 59 73 48 33 39 37 20 25 14 7 -4 57 118 125 99 70 68 73 65 65 80 73 75 88 102 86 92 95 99
84 99 83 44 60 66 70 116 89 125 166 174 144 139 139 93 75 68 123 129 74 51 83 81 84 74 52 43 39 26 37 29 28 26 24 31 70 95 118 86 55 27 28 50 53 58 70 79 94 104 105 97 98 103
169 165 56 96 90 88 135 145 77 128 178 144 147 102 119 97 83 97 125 118 85 70 103 103 83 51 36 32 16 19 29 33 41 38 29 39 53 78 120 106 76 75 66 54 64 74 84 100 124 123 110 84 99 101
175 107 128 116 131 132 157 147 107 131 152 151 126 106 80 87 100 95 125 122 64 87 110 101 54 54 25 22 17 19 35 50 45 41 28 39 38 73 111 121 100 76 63 68 88 115 125 119 106 93 122 119 124 116
169 116 91 90 92 97 108 131 155 106 152 164 138 103 72 86 93 103 85 107 95 88 84 83 74 35 20 19 24 30 30 38 30 28 45 45 50 95 134 147 141 115 97 101 109 109 113 111 111 126 132 142 147 140
126 150 152 125 103 104 105 94 113 106 82 141 114 118 100 80 92 106 110 100 85 71 72 75 45 27 18 19 23 26 39 80 101 62 36 48 62 116 141 142 124 131 141 141 147 154 149 139 135 149 140 138 160 153
206 175 186 139 109 87 55 56 83 82 82 96 116 101 104 131 148 141 124 85 105 100 53 58 38 44 72 57 13 -8 3 46 57 68 46 43 62 118 149 164 178 175 170 160 149 134 136 127 137 141 146 141 156 154
208 144 160 146 99 78 47 26 53 55 73 94 98 30 35 49 77 85 102 80 52 70 76 95 62 41 75 68 45 30 16 46 48 57 76 55 62 118 137 159 180 156 147 130 126 118 111 119 148 153 161 160 181 190
184 162 140 118 79 60 36 29 36 46 62 55 77 31 8 10 37 11 47 64 86 64 71 63 40 37 84 96 96 89 62 59 58 51 44 26 49 106 153 149 160 168 146 105 111 124 118 134 157 177 188 201 201 199
137 118 103 76 54 37 30 28 44 36 46 47 57 38 8 15 6 8 2 21 50 49 65 78 60 82 129 137 109 82 64 57 65 63 45 37 49 75 109 137 146 138 145 154 141 131 136 153 191 205 215 215 194 166
113 112 65 54 42 39 61 63 65 56 47 47 56 76 62 63 48 10 -32 7 71 42 53 65 86 93 89 92 98 85 71 65 72 60 33 39 67 104 129 143 140 135 147 178 167 169 180 198 204 201 178 166 146 127
57 45 26 13 -2 22 19 19 17 21 48 46 33 45 52 52 46 18 10 60 69 61 65 76 69 75 81 75 79 81 84 114 127 89 57 56 73 104 112 134 142 135 133 145 175 172 178 177 173 161 153 139 133 146
40 65 27 22 24 23 38 44 50 44 40 19 14 27 24 15 11 22 41 43 50 59 71 65 49 54 59 69 101 139 149 133 108 96 124 144 140 139 149 153 147 135 132 147 157 162 160 150 145 139 158 167 177 175
24 1 24 18 35 28 29 22 19 13 26 30 33 7 -6 -2 23 29 27 32 62 71 70 86 100 97 94 103 118 147 174 153 152 158 184 215 205 202 198 192 198 196 183 168 155 150 139 137 147 161 181 199 197 191
7 14 25 30 44 40 56 63 68 77 80 64 54 56 48 60 34 32 30 55 74 79 78 82 100 116 145 155 172 188 161 127 126 138 147 146 163 188 191 192 187 180 167 176 179 164 169 162 169 173 180 184 182 204
22 103 89 75 40 -26 11 73 77 106 141 150 135 110 99 80 74 72 81 83 88 75 42 42 62 91 114 143 161 197 206 184 158 129 118 116 118 120 141 163 156 142 132 140 146 157 174 163 156 156 179 195 192 188
144 158 105 118 71 19 41 103 121 117 101 98 107 100 104 88 94 117 136 116 81 67 68 70 114 134 134 152 157 148 152 170 152 141 139 161 157 133 127 121 110 109 115 122 123 127 135 152 155 174 188 189 172 154
106 115 81 31 31 48 45 35 20 9 9 7 25 61 80 71 29 73 137 119 82 80 99 116 139 160 161 145 139 135 132 107 125 122 133 122 114 99 95 92 93 101 110 114 110 119 142 157 161 157 144 140 130 127
42 54 46 21 34 41 39 18 20 15 22 17 19 45 55 49 14 46 90 127 98 80 99 122 136 148 153 141 126 134 146 135 136 138 137 119 101 89 83 84 90 95 108 111 114 128 145 151 137 126 121 119 110 99

GFSWCAN_con_3kmhel_123.txt.gz
Helicity
40 47 41 40 56 64 49 19 -10 52 49 40 53 81 107 102 104 59 104 128 61 105 155 129 83 60 76 69 49 33 46 49 68 71 67 79 98 69 56 38 28 38 39 57 61 82 77 92 56 33 45 32 14 10
25 44 36 64 70 68 53 59 -16 107 35 44 75 90 90 77 67 87 131 150 171 116 135 122 93 75 63 25 41 54 37 52 44 63 56 79 89 72 55 51 39 45 25 21 48 55 66 94 89 69 25 26 11 12
48 69 46 49 65 69 47 53 76 47 9 41 72 69 71 52 93 67 105 143 162 150 160 114 124 76 35 38 30 49 47 43 50 29 68 68 94 60 73 46 42 33 12 24 2 15 26 52 65 51 39 39 30 22
58 69 69 71 79 92 69 65 73 105 29 33 65 73 61 69 87 80 102 143 126 120 106 132 88 83 32 17 45 49 23 43 41 37 64 68 78 33 53 52 50 41 25 25 32 31 46 40 35 34 40 41 48 37
80 93 70 61 58 54 44 49 66 118 85 44 62 69 60 62 92 99 104 148 124 66 98 104 94 100 33 24 38 18 13 8 8 34 44 62 58 44 47 46 52 18 27 30 10 36 36 28 23 29 40 35 21 22
65 94 95 94 84 68 53 51 31 62 138 83 78 85 90 120 137 112 140 115 151 144 175 142 102 80 57 33 32 26 7 -4 -7 -3 19 20 20 40 48 53 44 31 33 34 37 63 49 65 40 36 39 28 29 39
92 99 126 116 95 92 90 93 43 44 122 115 90 126 118 90 107 137 99 133 155 98 105 134 110 77 53 27 31 22 17 10 5 1 12 16 22 32 29 31 34 37 47 58 81 97 86 36 26 30 47 47 52 51
78 117 123 110 116 132 129 96 64 82 134 100 122 115 150 129 97 129 166 200 155 114 112 88 95 84 69 39 25 25 15 12 11 9 11 16 20 19 10 31 39 30 48 69 64 47 46 68 81 64 52 41 38 38
101 110 134 130 106 114 108 77 54 78 130 135 120 147 170 147 131 102 113 164 131 104 88 85 72 70 74 46 26 11 -3 7 -5 10 15 15 22 14 17 80 68 60 46 48 60 60 59 61 64 50 43 33 30 28
91 100 101 113 92 93 78 56 60 61 65 115 199 197 156 137 98 97 126 132 135 130 101 91 91 79 70 52 34 15 8 13 21 21 18 24 28 34 50 59 64 41 64 97 91 44 47 41 45 39 30 29 22 32
84 110 87 71 68 88 78 72 58 51 107 203 163 183 163 127 144 126 120 121 109 112 101 104 97 79 73 54 36 21 16 11 32 28 25 22 18 31 63 90 83 67 63 46 80 54 32 42 54 54 45 33 28 34
28 18 33 47 47 71 70 50 60 111 157 146 163 205 172 157 122 97 111 109 96 97 99 110 106 104 78 53 38 16 23 16 32 25 29 21 23 35 57 83 89 84 82 70 73 57 47 46 54 62 51 45 42 51
62 57 53 39 59 62 57 58 71 41 100 181 237 187 148 144 113 108 101 112 84 90 86 136 130 100 80 57 39 26 29 20 17 26 27 29 31 35 59 95 118 94 97 91 79 67 68 74 81 77 68 58 80 94
71 66 64 69 63 63 59 43 61 98 163 231 237 195 147 118 112 91 114 107 79 67 66 125 141 94 64 53 29 33 21 20 39 34 26 14 13 46 73 95 135 116 106 84 64 57 71 88 99 92 81 83 107 110
89 68 56 66 76 58 88 101 74 154 192 206 165 143 124 94 96 69 93 100 77 63 112 132 126 72 74 44 34 30 31 30 22 20 14 0 0 54 77 97 91 105 106 89 59 40 59 79 76 88 85 98 109 119
95 98 52 74 76 103 116 119 99 111 140 181 143 140 135 107 101 79 112 103 78 51 119 112 99 82 54 35 28 22 46 44 23 26 22 8 16 30 59 81 72 71 85 87 67 59 65 52 66 92 103 93 94 103
163 110 71 118 112 122 129 118 113 117 133 147 117 107 115 107 103 86 133 106 70 85 132 123 94 57 40 43 31 16 36 33 29 34 24 15 20 33 64 116 108 88 70 65 68 51 58 86 125 126 102 85 97 96
148 79 96 84 91 159 186 129 148 111 112 127 89 99 91 95 102 93 147 135 112 130 136 114 52 47 44 49 33 18 19 29 31 25 32 26 26 37 57 105 119 102 92 72 64 90 109 125 111 95 116 127 122 108
88 58 20 35 88 127 135 131 117 124 132 114 102 62 78 71 71 71 125 141 118 111 98 94 63 36 39 35 17 16 17 30 31 26 26 27 25 42 72 112 142 123 106 87 82 85 94 99 109 120 126 135 119 118
123 110 80 69 74 98 108 123 130 105 110 128 92 86 69 75 78 83 84 99 88 75 73 51 23 24 37 48 27 19 19 35 49 39 37 40 46 63 76 101 114 136 141 127 121 130 140 138 133 130 138 140 141 136
158 130 85 68 78 64 52 71 101 98 96 96 115 102 98 71 90 112 111 106 100 87 67 49 41 46 37 44 61 44 22 11 4 24 26 36 44 55 69 93 147 155 146 124 120 118 130 124 151 145 138 127 128 141
138 106 113 97 56 37 29 38 46 57 86 97 105 98 93 86 88 87 91 96 90 95 77 76 72 54 25 37 52 51 52 58 66 54 72 64 42 40 44 66 129 130 122 119 123 131 149 158 155 142 135 139 148 156
152 126 104 72 28 35 38 32 42 62 63 65 90 100 79 78 55 49 69 62 72 66 52 35 33 36 45 61 77 94 93 85 72 57 57 54 51 57 64 52 62 112 121 108 124 152 168 176 171 165 163 168 175 178
149 120 75 43 33 27 26 27 34 35 46 51 75 92 87 59 30 44 29 20 30 31 31 51 56 66 83 83 80 83 109 93 92 84 65 60 62 66 60 54 62 73 116 157 149 160 173 172 172 166 167 175 163 156
114 96 49 56 40 26 35 49 42 53 54 44 51 81 67 56 36 17 3 1 30 43 59 72 75 86 78 78 92 96 99 81 76 74 63 66 85 108 112 117 119 119 140 174 165 159 161 157 150 155 154 148 150 153
124 38 37 13 31 34 24 37 33 36 41 28 23 39 50 55 39 12 32 65 81 90 82 90 94 87 90 91 83 80 78 78 92 102 85 80 82 84 72 78 86 104 108 135 150 140 138 144 153 158 158 158 160 157
36 25 28 23 28 27 29 38 39 37 32 16 20 27 36 36 16 31 43 53 50 51 70 87 82 65 59 67 91 110 126 137 129 124 131 139 133 123 122 108 95 114 113 117 121 123 134 137 148 160 173 181 191 176
12 23 43 29 24 18 10 14 8 0 2 17 34 13 4 6 17 25 25 25 46 65 75 81 85 87 89 88 94 116 151 148 157 168 184 223 209 194 178 170 175 184 172 156 142 138 137 142 148 162 181 200 190 169
0 15 8 12 23 31 32 31 28 38 55 63 64 64 43 44 34 30 25 36 45 55 59 64 93 114 136 132 140 153 138 121 118 134 139 138 145 177 177 172 171 173 174 196 208 181 183 176 178 180 177 170 171 186
-21 -25 -24 -24 -16 -17 -14 53 31 52 84 108 113 111 104 87 79 76 76 81 88 85 72 72 80 102 117 122 138 164 165 148 124 99 97 98 103 114 131 143 145 139 134 149 158 168 189 180 167 146 161 167 159 152
32 21 -13 4 22 22 32 99 100 92 75 73 101 102 104 103 101 114 138 126 93 75 82 103 131 133 112 109 102 96 98 132 128 128 133 157 139 122 119 117 109 106 106 106 106 110 113 131 138 153 162 162 153 142
91 74 43 17 2 -7 -12 -34 -57 -67 -60 -63 -50 12 -17 -43 -42 77 160 152 117 120 118 115 127 142 144 138 139 144 138 106 119 120 139 133 125 108 99 93 91 96 106 109 99 103 127 143 139 139 140 141 127 119
25 23 18 9 9 13 14 7 -11 -22 -26 -27 -33 -19 -8 -6 -20 85 118 157 114 86 97 112 123 137 153 154 143 145 162 155 154 153 146 123 104 90 77 76 80 87 101 104 108 122 133 143 135 128 120 113 103 93